     2.10           OBSERVATION DATA    G (GPS)             RINEX VERSION / TYPE
teqc 2005May6 SOPAC 20050707 00:28:01UTC                    PGM / RUN BY / DATE
Linux 2.4.20-8|Pentium IV|gcc|Linux|486/DX+                 COMMENT
BIT 2 OF LLI FLAGS DATA COLLECTED UNDER A/S CONDITION       COMMENT
3 TRI 74.22                                                 MARKER NAME
2NG3                                                        MARKER NUMBER
Tim Habon                                                   OBSERVER / AGENCY
0220223931 TRIMBLE 4700 1.30                                REC # / TYPE / VERS
0220063964 TRM22020.00+GP NONE                              ANT # / TYPE
 -2595752.0000 -4048719.0000  4176573.0000                  APPROX POSITION XYZ
        2.0000        0.0000        0.0000                  ANTENNA: DELTA H/E/N
     1     1                                                WAVELENGTH FACT L1/2
     6    L1    L2    C1    P2    P1    D1                  # / TYPES OF OBSERV
    15.0000                                                 INTERVAL
Northern California Height Modernization 2004               COMMENT
                                                            COMMENT
SOPAC - Scripps Orbit and Permanent Array Center            COMMENT
IGPP - Institute of Geophysics and Planetary Physics        COMMENT
SIO - Scripps Institution of Oceanography                   COMMENT
UCSD - University of California, San Diego                  COMMENT
                                                            COMMENT
email: archive@gpsmail.ucsd.edu                             COMMENT
ftp://garner.ucsd.edu                                       COMMENT
http://sopac.ucsd.edu                                       COMMENT
                                                            COMMENT
                                                            COMMENT
Approximate Lat, Lon : 41.162, -122.665                     COMMENT
                                                            COMMENT
SNR is mapped to RINEX snr flag value [0-9]                 COMMENT
L1 & L2: 2-19 dBHz = 1, 20-27 dBHz = 2, 28-31 dBHz = 3      COMMENT
32-35 dBHz = 4, 36-38 dBHz = 5, 39-41 dBHz = 6              COMMENT
42-44 dBHz = 7, 45-48 dBHz = 8, >= 49 dBHz = 9              COMMENT
  2004     9     8    20    57   30.0000000     GPS         TIME OF FIRST OBS
                                                            END OF HEADER
 04  9  8 20 57 30.0000000  0  5G 8G13G16G23G27
    -53827.26658    -27053.02254  23213330.4064   23213329.0514
      3398.0634
    -18266.02059    -11915.13758  20347961.8754   20347958.7154
      1014.7194
     44527.01457     12173.93253  23916297.2274   23916294.2074
     -2458.1564
     26468.48759      5481.33457  21458945.5944   21458940.8674
     -1444.0944
    -39569.25959    -18618.79758  21690691.2344   21690689.5274
      2148.9694
 04  9  8 20 57 45.0000000  0  5G 8G13G16G23G27
   -104892.28848    -66843.92744  23203612.6804   23203611.5944
      3411.2034
    -33548.23549    -23823.37648  20345054.3364   20345050.9734
      1023.4844
     81314.12947     40839.17643  23923296.6564   23923295.0944
     -2446.1254
     48060.33049     22306.11847  21463053.8594   21463049.0664
     -1434.2034
    -71894.38349    -43807.20147  21684540.3594   21684538.3094
      2161.6724
 04  9  8 20 58  0.0000000  0  5G 8G13G16G23G27
   -156170.46448   -106800.93344  23193855.5084   23193853.9344
      3425.4694
    -48978.23149    -35846.75248  20342117.9144   20342114.9224
      1033.4224
    117906.11547     69352.37343  23930259.2734   23930257.9264
     -2433.1414
     69488.61549     39003.45747  21467132.3984   21467126.4454
     -1423.3284
   -104426.05249    -69156.56447  21678349.0474   21678347.6914
      2175.4534
 04  9  8 20 58 15.0000000  0  5G 8G13G16G23G27
   -207667.71648   -146928.63944  23184054.8914   23184054.4804
      3440.2194
    -64561.94449    -47989.91548  20339152.6024   20339149.3554
      1043.7504
    154296.81947     97708.73043  23937185.3524   23937182.3634
     -2419.4694
     90747.53549     55568.83147  21471177.6564   21471172.7344
     -1411.8444
   -137170.14549    -94671.43447  21672118.3984   21672116.6294
      2189.7974
 04  9  8 20 58 30.0000000  0  5G 8G13G16G23G27
   -259387.91748   -187230.05544  23174212.6254   23174212.5824
      3455.7034
    -80303.09249    -60255.74248  20336156.7664   20336153.3634
      1054.8444
    190482.20347    125905.08443  23944070.9924   23944067.7424
     -2405.2504
    111833.04849     71999.07047  21475189.2504   21475185.5634
     -1399.6564
   -170130.58049   -120354.88547  21665846.1954   21665844.7194
      2204.8284
 04  9  8 20 58 45.0000000  0  5G 8G13G16G23G27
   -311322.73648   -227698.72044  23164329.8674   23164329.5354
      3469.7974
    -96193.21049    -72637.66048  20333132.9844   20333129.6454
      1064.6564
    226470.19847    153947.59843  23950919.7344   23950916.0704
     -2392.0624
    132753.57549     88300.76247  21479170.9064   21479166.5354
     -1388.7814
   -203298.97749   -146200.38447  21659534.6334   21659532.7504
      2218.5634
 04  9  8 20 59  0.0000000  0  5G 8G13G16G23G27
   -363466.06748   -268329.88044  23154407.1564   23154406.9494
      3483.0784
   -112226.05749    -85130.80648  20330082.1414   20330078.5944
      1073.5164
    262266.43847    181840.77143  23957731.4534   23957728.6764
     -2380.1414
    153514.89449    104478.40547  21483121.6804   21483117.4224
     -1378.7974
   -236669.40849   -172203.32347  21653184.0704   21653182.5554
      2231.3914
 04  9  8 20 59 15.0000000  0  5G 8G13G16G23G27
   -415803.61448   -309112.36744  23144448.6334   23144447.4734
      3495.0004
   -128387.20149    -97723.89948  20327006.8984   20327003.4964
      1081.0784
    297884.78946    209595.27942  23964508.3834   23964507.0354
     -2369.3124
    174131.24749    120543.05747  21487044.8054   21487039.8874
     -1370.1874
   -270227.71449   -198352.63747  21646798.2814   21646797.1604
      2242.8754
 04  9  8 20 59 30.0000000  0  5G 8G13G16G23G27
   -468320.74548   -350034.79544  23134454.1334   23134453.7504
      3506.6884
   -144661.95149   -110405.52648  20323909.5864   20323906.4844
      1088.4064
    333339.59946    237222.34642  23971255.6644   23971253.8164
     -2358.6724
    194617.15849    136506.10047  21490943.0394   21490937.9734
     -1361.7504
   -303959.12849   -224636.84547  21640379.3834   21640378.1214
      2254.1414
 04  9  8 20 59 45.0000000  0  5G 8G13G16G23G27
   -521007.89448   -391089.68344  23124428.6724   23124428.0124
      3517.9534
   -161040.69349   -123168.18448  20320792.9064   20320789.8554
      1095.1884
    368640.13845    264729.26442  23977971.8444   23977971.5124
     -2348.5624
    214982.05249    152374.83347  21494818.0314   21494813.6334
     -1353.8124
   -337854.21149   -251048.60447  21633929.4614   21633927.4804
      2264.8914
 04  9  8 21  0  0.0000000  0  5G 8G13G16G23G27
   -573853.11148   -432267.77044  23114371.8284   23114371.1094
      3528.0004
   -177511.39049   -136002.50048  20317658.7344   20317655.1174
      1100.8284
    403797.85846    292124.86042  23984663.0864   23984662.0084
     -2339.4064
    235237.64449    168158.38247  21498673.0164   21498668.2234
     -1347.0474
   -371901.16349   -277578.69547  21627450.6414   21627448.2074
      2274.5004
 04  9  8 21  0 15.0000000  0  5G 8G13G16G23G27
   -626836.84948   -473553.76444  23104288.8914   23104288.7544
      3536.8444
   -194054.35749   -148893.12848  20314510.4304   20314507.4924
      1105.1884
    438832.11445    319424.25142  23991330.7974   23991328.8364
     -2331.7034
    255403.53549    183872.05247  21502510.6954   21502506.0044
     -1341.4534
   -406080.40649   -304211.85847  21620946.4224   21620944.3284
      2282.9534
 04  9  8 21  0 30.0000000  0  5G 8G13G16G23G27
   -679940.24848   -514933.00744  23094183.7894   23094183.7504
      3543.8444
   -210650.65649   -161825.32448  20311352.6724   20311349.3674
      1107.8594
    473761.18547    346641.69243  23997977.8054   23997975.4494
     -2325.4694
    275498.41449    199530.36447  21506334.0944   21506330.7704
     -1337.5944
   -440373.25549   -330933.55947  21614420.5784   21614419.0904
      2289.6414
 04  9  8 21  0 45.0000000  0  5G 8G13G16G23G27
   -733144.37448   -556390.73244  23084060.5084   23084059.3954
      3549.7504
   -227281.43949   -174784.36148  20308187.7344   20308184.7194
      1109.2814
    508603.65646    373791.59243  24004607.7034   24004605.8754
     -2320.5004
    295540.89849    215147.85647  21510148.6884   21510144.1414
     -1335.0164
   -474760.83249   -357729.05847  21607877.1954   21607875.7704
      2295.0474
 04  9  8 21  1  0.0000000  0  5G 8G13G16G23G27
   -786436.07948   -597916.73944  23073919.4144   23073917.6374
      3555.3284
   -243933.35449   -187759.89848  20305019.0394   20305015.8094
      1110.4534
    543372.32146    400884.05843  24011223.7114   24011221.0514
     -2315.7664
    315544.04649    230734.71347  21513954.9614   21513950.2304
     -1332.5474
   -509230.03349   -384588.17547  21601317.6954   21601316.0554
      2300.3914
 04  9  8 21  1 15.0000000  0  5G 8G13G16G23G27
   -839807.45448   -639504.81044  23063762.4144   23063761.2734
      3561.0004
   -260598.56949   -200745.77848  20301847.8204   20301844.5274
      1111.7194
    578074.67246    427924.81143  24017827.8284   24017824.5004
     -2311.0164
    335515.55949    246296.90647  21517755.2664   21517751.2664
     -1330.1254
   -543773.06449   -411504.81047  21594744.4534   21594742.2344
      2305.5634
 04  9  8 21  1 30.0000000  0  5G 8G13G16G23G27
   -893247.03248   -681146.01644  23053593.9614   23053592.9184
      3564.5634
   -277265.23049   -213732.78848  20298676.2344   20298673.5044
      1110.8284
    612722.10146    454922.75042  24024420.1804   24024418.3914
     -2308.2814
    355467.05449    261843.49447  21521551.8834   21521547.8444
     -1329.7504
   -578378.33549   -438469.96147  21588159.0634   21588157.3554
      2308.7034
 04  9  8 21  1 45.0000000  0  5G 8G13G16G23G27
   -946742.42748   -722830.70344  23043413.1334   23043412.7624
      3568.7504
   -293920.59149   -226711.00248  20295506.6724   20295504.0084
      1110.5634
    647326.47546    481887.12542  24031004.4774   24031003.7544
     -2304.8914
    375410.67449    277383.94847  21525347.2504   21525342.6484
     -1328.7344
   -613033.64249   -465474.08847  21581564.9224   21581562.3874
      2312.5004
 04  9  8 21  2  0.0000000  0  5G 8G13G16G23G27
  -1000302.11048   -764565.49844  23033221.3134   23033220.3444
      3572.6254
   -310573.40449   -239687.22048  20292338.1884   20292334.6174
      1109.9844
    681879.09446    508811.23542  24037580.2584   24037578.8284
     -2301.9064
    395337.83249    292911.60547  21529139.3754   21529135.0864
     -1328.0474
   -647747.34249   -492523.71747  21574958.6334   21574956.6764
      2316.0164
 04  9  8 21  2 15.0000000  0  5G 8G13G16G23G27
  -1053928.80548   -806352.50644  23023017.4304   23023015.4614
      3577.4384
   -327226.40749   -252663.58048  20289168.9304   20289165.9344
      1110.2974
    716376.73846    535692.47042  24044145.4144   24044144.0084
     -2297.9534
    415245.73649    308424.24847  21532927.2734   21532924.1254
     -1326.4844
   -682522.38249   -519621.13747  21568341.0634   21568339.5274
      2320.4224
 04  9  8 21  2 30.0000000  0  5G 8G13G16G23G27
  -1107618.85948   -848188.89044  23012799.9304   23012798.4024
      3581.2344
   -343875.86749   -265637.19848  20286000.4924   20285997.6954
      1109.6724
    750822.69446    562533.42943  24050700.7424   24050698.7974
     -2294.8284
    435137.85049    323924.54547  21536713.0004   21536709.3794
     -1325.8124
   -717355.12449   -546763.53347  21561712.5234   21561710.6134
      2323.9064
 04  9  8 21  2 45.0000000  0  5G 8G13G16G23G27
  -1161373.24948   -890075.41144  23002571.0084   23002569.7344
      3586.0634
   -360522.69449   -278608.75547  20282833.1024   20282829.8444
      1110.0004
    785215.41346    589332.93742  24057245.4064   24057242.8404
     -2290.7814
    455012.99349    339411.65147  21540494.6174   21540490.6454
     -1324.2034
   -752246.70449   -573951.76447  21555072.9224   21555070.5394
      2328.3754
 04  9  8 21  3  0.0000000  0  5G 8G13G16G23G27
  -1215193.21748   -932013.02144  22992328.9064   22992328.4884
      3590.2034
   -377167.94849   -291579.07748  20279665.7504   20279662.2814
      1109.6094
    819553.52946    616089.89842  24063780.2114   24063776.7114
     -2287.4064
    474869.79849    354884.48047  21544273.7274   21544268.8054
     -1323.2034
   -787198.37149   -601186.83047  21548421.9144   21548420.0904
      2332.0944
 04  9  8 21  3 15.0000000  0  5G 8G13G16G23G27
  -1269079.64648   -974002.40444  22982074.5394   22982073.9964
      3594.7034
   -393812.46949   -304548.84848  20276498.0634   20276495.0594
      1109.7344
    853835.67346    642803.23742  24070302.4694   24070300.8284
     -2283.4844
    494707.21449    370342.16447  21548048.6644   21548043.8754
     -1321.7194
   -822211.14149   -628469.50847  21541759.2814   21541756.8984
      2336.3284
 04  9  8 21  3 30.0000000  0  5G 8G13G16G23G27
  -1323029.52348  -1016041.24244  22971808.4614   22971807.6844
      3598.0944
   -410453.23549   -317515.67448  20273331.6094   20273328.3794
      1108.5164
    888064.46947    669475.00442  24076817.2114   24076815.0314
     -2280.8444
    514527.97649    385786.90147  21551820.5784   21551816.1054
     -1321.5314
   -857282.07649   -655797.50147  21535085.4064   21535084.2234
      2339.2974
 04  9  8 21  3 45.0000000  0  5G 8G13G16G23G27
  -1377036.51148  -1058124.59444  22961530.8444   22961529.8674
      3602.4534
   -427083.73449   -330474.51448  20270166.6564   20270163.4024
      1108.4534
    922245.94147    696109.87642  24083320.2894   24083319.7734
     -2277.0164
    534338.50049    401223.66347  21555589.9774   21555585.4144
     -1320.3284
   -892404.75749   -683165.81247  21528401.7584   21528400.0514
      2343.2974
 04  9  8 21  4  0.0000000  0  5G 8G13G16G23G27
  -1431093.56248  -1100246.96844  22951244.1884   22951243.4774
      3605.2504
   -443696.73149   -343419.71748  20267005.3364   20267002.5744
      1106.7034
    956386.79846    722713.07542  24089819.1334   24089816.5204
     -2274.9694
    554145.63749    416657.76247  21559359.5164   21559354.8634
     -1320.6414
   -927572.30249   -710569.08947  21521709.6724   21521707.6884
      2345.7344
 04  9  8 21  4 15.0000000  0  5G 8G13G16G23G27
  -1485201.95048  -1142409.32844  22940947.4844   22940947.4414
      3608.8594
   -460293.35849   -356352.14647  20263846.9384   20263844.2464
      1105.7974
    990485.50646    749283.49342  24096305.8054   24096304.8444
     -2271.9534
    573948.13449    432088.24747  21563128.0234   21563123.8134
     -1320.1254
   -962785.83449   -738008.20647  21515009.2034   21515007.1914
      2348.9844
 04  9  8 21  4 30.0000000  0  5G 8G13G16G23G27
  -1539357.94548  -1184608.78244  22930642.0314   22930641.8714
      3612.0004
   -476869.88549   -369268.92548  20260692.6024   20260689.4224
      1104.4064
   1024545.38946    775823.63342  24102787.5394   24102786.1604
     -2269.4374
    593749.48449    447517.85647  21566895.9924   21566891.0784
     -1320.1414
   -998041.87749   -765480.43747  21508300.3364   21508297.6684
      2351.7664
 04  9  8 21  4 45.0000000  0  5G 8G13G16G23G27
  -1593555.36948  -1226840.52344  22920328.5784   22920328.3164
      3614.2974
   -493419.83249   -382164.99548  20257543.3984   20257540.3364
      1102.1414
   1058572.47945    802338.20042  24109263.4534   24109261.8244
     -2267.5314
    613555.87349    462951.37647  21570664.9454   21570659.3914
     -1320.8444
  -1033334.10049   -792980.86547  21501583.9224   21501581.4614
      2353.7504
 04  9  8 21  5  0.0000000  0  5G 8G13G16G23G27
  -1647792.98547  -1269103.57044  22910006.8594   22910007.0314
      3617.2974
   -509942.19349   -395039.56148  20254399.1484   20254396.3834
      1100.7194
   1092567.51546    828827.77142  24115733.2424   24115730.5944
     -2265.2034
    633368.31149    478389.61847  21574435.7664   21574430.5084
     -1320.8914
  -1068661.40449   -820508.62747  21494861.3134   21494859.5204
      2356.4694
 04  9  8 21  5 15.0000000  0  5G 8G13G16G23G27
  -1702072.55548  -1311399.33244  22899678.7504   22899678.3554
      3619.7814
   -526438.92949   -407894.15748  20251259.9384   20251257.0044
      1098.6414
   1126527.98546    855290.49142  24122196.0634   24122193.3094
     -2263.2034
    653184.63749    493830.91247  21578206.5084   21578201.7114
     -1321.4694
  -1104025.93249   -848065.39447  21488132.0704   21488130.7584
      2358.5944
 04  9  8 21  5 30.0000000  0  5G 8G13G16G23G27
  -1756390.09948  -1353724.64844  22889342.7584   22889342.6214
      3621.9224
   -542905.89949   -420725.57148  20248126.5634   20248123.3874
      1096.3284
   1160457.51246    881729.02742  24128651.7344   24128649.1954
     -2261.2664
    673008.71749    509278.21747  21581978.6094   21581975.0904
     -1322.3754
  -1139423.71349   -875648.07247  21481395.8984   21481394.6684
      2360.4534
 04  9  8 21  5 45.0000000  0  5G 8G13G16G23G27
  -1810746.00148  -1396079.88845  22878999.1334   22878997.7624
      3624.8284
   -559343.11749   -433533.80448  20244998.7274   20244995.7934
      1094.6254
   1194355.72146    908143.21442  24135101.2114   24135100.1024
     -2258.9844
    692840.09849    524731.20547  21585752.5234   21585747.6094
     -1322.5164
  -1174854.96249   -903256.84247  21474653.2034   21474651.0474
      2363.0164
 04  9  8 21  6  0.0000000  0  5G 8G13G16G23G27
  -1865136.47048  -1438462.03545  22868648.4694   22868647.7894
      3626.8754
   -575746.81549   -446315.89948  20241877.2504   20241874.3284
      1092.0784
   1228225.92646    934535.53542  24141546.8754   24141545.6844
     -2257.3444
    712682.50949    540192.80647  21589527.9534   21589523.4774
     -1323.5314
  -1210316.04349   -930888.84147  21467905.5864   21467903.6454
      2364.6884
 04  9  8 21  6 15.0000000  0  5G 8G13G16G23G27
  -1919555.21248  -1480866.22345  22858293.3134   22858292.4144
      3628.8284
   -592110.53249   -459066.84748  20238763.2734   20238759.9884
      1089.5314
   1262074.20246    960910.76242  24147989.1024   24147986.5634
     -2255.7974
    732542.19849    555667.88847  21593307.0314   21593302.9924
     -1324.6254
  -1245800.63349   -958539.16947  21461152.8834   21461151.1884
      2366.4224
 04  9  8 21  6 30.0000000  0  5G 8G13G16G23G27
  -1974001.17848  -1523291.62944  22847931.8754   22847931.4654
      3630.7664
   -608432.81249   -471785.51548  20235657.0864   20235654.3364
      1086.9384
   1295901.55946    987269.66642  24154425.8364   24154423.0984
     -2254.3444
    752420.40849    571157.35447  21597089.6414   21597085.8134
     -1325.7034
  -1281307.25649   -986206.66747  21454396.2814   21454394.5084
      2367.9844
 04  9  8 21  6 45.0000000  0  6G 3G 8G13G16G23G27
    -82490.18514                  23152701.406
      2166.016
  -2028475.40048  -1565739.07544  22837566.6804   22837564.9574
      3631.6884
   -624715.03949   -484472.97748  20232558.8834   20232555.6134
      1083.2974
   1329706.16946   1013610.92242  24160859.6564   24160856.4924
     -2253.7504
    772315.50749    586660.00447  21600876.8444   21600871.7504
     -1327.7034
  -1316837.56049  -1013892.62747  21447634.9384   21447633.1374
      2368.6254
 04  9  8 21  7  0.0000000  0  6G 3G 8G13G16G23G27
   -114962.32914                  23146526.492
      2162.625
  -2082974.63148  -1608205.99744  22827195.3984   22827194.4654
      3634.1414
   -640954.12849   -497126.81148  20229468.5944   20229465.2974
      1081.2034
   1363490.62846   1039936.41342  24167288.7344   24167285.9654
     -2251.5474
    792230.40549    602178.10447  21604665.6804   21604661.1134
     -1328.3284
  -1352388.50049  -1041594.63547  21440869.8834   21440867.5944
      2370.7344
 04  9  8 21  7 15.0000000  0  5G 8G13G16G23G27
  -2137499.54948  -1650692.91644  22816820.3444   22816818.8094
      3635.7194
   -657150.35149   -509747.24448  20226386.6564   20226383.3794
      1078.1724
   1397254.24246   1066245.63141  24173711.6024   24173711.0744
     -2250.3914
    812164.58649    617711.21547  21608458.5554   21608454.4414
     -1329.7194
  -1387960.65549  -1069313.19847  21434100.8444   21434098.7664
      2372.0474
 04  9  8 21  7 30.0000000  0  5G 8G13G16G23G27
  -2192044.39248  -1693195.40145  22806439.9844   22806439.0354
      3636.5634
   -673297.80949   -522329.68548  20223313.8914   20223310.9144
      1074.5004
   1431002.43746   1092542.91541  24180135.0864   24180132.7934
     -2249.7344
    832123.60949    633263.66547  21612257.4924   21612252.5084
     -1331.7194
  -1423548.35649  -1097043.87447  21427329.1564   21427326.6024
      2372.6884
 04  9  8 21  7 45.0000000  0  5G 8G13G16G23G27
  -2246604.45348  -1735709.71044  22796057.2974   22796056.9884
      3638.1724
   -689392.02249   -534870.62447  20220251.2194   20220248.3484
      1071.5634
   1464739.37245   1118831.38341  24186553.3674   24186553.0514
     -2248.3444
    852111.92949    648838.97247  21616061.1254   21616056.3484
     -1333.1874
  -1459146.99449  -1124783.04847  21420554.5634   21420553.0864
      2373.9694
 04  9  8 21  8  0.0000000  0  5G 8G13G16G23G27
  -2301188.09748  -1778242.37645  22785671.0004   22785670.5164
      3639.6884
   -705440.98849   -547376.31848  20217197.3054   20217194.1914
      1068.4064
   1498456.65346   1145104.54341  24192970.9454   24192969.3674
     -2247.2034
    872121.19449    664430.56947  21619868.1644   21619864.0554
     -1334.6874
  -1494764.71949  -1152537.12447  21413776.9144   21413774.9804
      2375.1254
 04  9  8 21  8 15.0000000  0  5G 8G13G16G23G27
  -2355789.59648  -1820788.99745  22775280.2194   22775279.5354
      3640.5634
   -721438.98649   -559842.29948  20214152.6024   20214149.1844
      1064.6724
   1532159.38846   1171366.37141  24199383.5474   24199382.6414
     -2246.5004
    892156.99849    680042.86847  21623681.2664   21623676.4384
     -1336.7504
  -1530396.00149  -1180301.75547  21406996.2974   21406994.2664
      2375.7814
 04  9  8 21  8 30.0000000  0  5G 8G13G16G23G27
  -2410405.96948  -1863347.17545  22764887.0784   22764886.5904
      3641.3134
   -737382.82749   -572266.08148  20211119.1024   20211115.9304
      1060.8754
   1565850.49345   1197619.14041  24205795.3134   24205794.1414
     -2246.0004
    912222.23149    695678.08347  21627499.4534   21627495.2384
     -1338.8914
  -1566037.74749  -1208074.54447  21400213.5084   21400211.7544
      2376.2664
 04  9  8 21  8 45.0000000  0  5G 8G13G16G23G27
  -2465031.87648  -1905912.79544  22754491.7504   22754491.4924
      3642.0944
   -753267.32349   -584643.61248  20208095.8754   20208093.1054
      1057.1414
   1599534.64545   1223866.53942  24212204.6724   24212204.4804
     -2245.3914
    932321.96649    711340.19947  21631324.8284   21631319.5514
     -1341.0314
  -1601684.95549  -1235851.58247  21393430.5864   21393428.4534
      2376.7344
 04  9  8 21  9  0.0000000  0  5G 8G13G16G23G27
  -2519670.78348  -1948488.55545  22744094.7034   22744093.6094
      3643.1254
   -769095.95249   -596977.61148  20205084.0474   20205080.8054
      1053.4694
   1633207.98946   1250105.44841  24218613.2344   24218612.8834
     -2244.5314
    952452.34849    727026.19047  21635155.2734   21635150.5664
     -1342.9844
  -1637341.14849  -1263635.62147  21386645.0234   21386643.2464
      2377.4694
 04  9  8 21  9 15.0000000  0  5G 8G13G16G23G27
  -2574321.54948  -1991073.54945  22733695.0554   22733694.3524
      3643.7974
   -784867.31549   -609266.98148  20202082.4614   20202079.4224
      1049.5314
   1666871.48246   1276336.74642  24225019.3674   24225018.5944
     -2243.9064
    972614.68449    742737.08747  21638992.0704   21638987.1334
     -1345.2034
  -1673005.10049  -1291425.71647  21379858.3134   21379856.8524
      2377.9064
 04  9  8 21  9 30.0000000  0  5G 8G13G16G23G27
  -2628984.76348  -2033668.24645  22723293.3134   22723292.3364
      3644.1884
   -800581.79849   -621512.03748  20199092.3524   20199089.2114
      1045.3134
   1700524.21246   1302559.56842  24231424.1334   24231422.3554
     -2243.5164
    992808.32049    758472.35746  21642835.0004   21642829.8594
     -1347.6724
  -1708677.43749  -1319222.33447  21373070.2734   21373068.5394
      2377.9844
 04  9  8 21  9 45.0000000  0  5G 8G13G16G23G27
  -2683655.84148  -2076269.06144  22712889.2424   22712888.3204
      3645.2504
   -816235.01749   -633709.34448  20196113.3754   20196110.6094
      1041.7034
   1734170.28146   1328777.22942  24237826.4064   24237824.1414
     -2242.6414
   1013037.40149    774235.28146  21646684.2814   21646679.3834
     -1349.6094
  -1744353.76849  -1347022.06247  21366281.5634   21366279.6454
      2378.7344
 04  9  8 21 10  0.0000000  0  5G 8G13G16G23G27
  -2738335.00248  -2118876.18845  22702484.1334   22702483.4454
      3646.1724
   -831827.13149   -645859.05548  20193146.3204   20193144.0514
      1038.0634
   1767809.13345   1354989.27242  24244225.3444   24244225.4964
     -2241.8284
   1033301.64049    790025.57047  21650540.7424   21650535.8204
     -1351.5314
  -1780034.30249  -1374825.07547  21359491.6884   21359489.3014
      2379.4694
 04  9  8 21 10 15.0000000  0  4G 8G13G23G27
  -2793025.41448  -2161492.08845  22692077.5084   22692076.0864
      3646.2194
   -847361.18249   -657963.53148  20190190.5864   20190187.5984
      1033.4384
   1053597.69849    805840.64547  21654402.5004   21654398.2114
     -1354.3914
  -1815722.31549  -1402633.92547  21352700.5944   21352698.7774
      2379.2664
 04  9  8 21 10 30.0000000  0  4G 8G13G23G27
  -2847722.61548  -2204113.25145  22681669.1094   22681667.0394
      3646.5474
   -862832.79549   -670019.31347  20187246.7814   20187243.5664
      1029.2344
   1073929.88349    821683.88947  21658271.6724   21658267.0984
     -1356.7814
  -1851413.52649  -1430445.24247  21345908.3284   21345905.9924
      2379.3134
 04  9  8 21 10 45.0000000  0  4G 8G13G23G27
  -2902424.06048  -2246737.75345  22671259.1024   22671258.7344
      3646.5164
   -878239.13049   -682024.26348  20184314.7664   20184311.5664
      1024.6414
   1094300.60149    837557.14947  21662148.3834   21662143.2274
     -1359.5784
  -1887105.11649  -1458256.87447  21339116.6094   21339113.9844
      2379.1884
 04  9  8 21 11  0.0000000  0  4G 8G13G23G27
  -2957127.54848  -2289363.81445  22660849.3834   22660848.3054
      3647.2344
   -893577.98349   -693976.61548  20181395.7114   20181392.9264
      1020.5944
   1114711.94749    853462.08247  21666031.5864   21666026.9384
     -1361.7974
  -1922795.22249  -1486067.34147  21332325.1024   21332323.3754
      2379.5164
 04  9  8 21 11 15.0000000  0  4G 8G13G23G27
  -3011836.24948  -2331993.95945  22650438.4774   22650438.0744
      3647.5004
   -908852.44249   -705878.79248  20178488.9774   20178486.1134
      1016.2344
   1135160.64849    869396.12146  21669922.9774   21669918.4574
     -1364.4224
  -1958486.84149  -1513878.99247  21325533.3364   21325531.6884
      2379.6254
 04  9  8 21 11 30.0000000  0  5G 3G 8G13G23G27
    -17431.40513                  23037534.734
      2074.766
  -3066547.85148  -2374626.36245  22640027.6094   22640025.9734
      3647.6724
   -924060.03349   -717728.86848  20175594.8674   20175592.2194
      1011.7344
   1155648.95249    885361.01247  21673822.0164   21673817.8714
     -1367.0004
  -1994177.78749  -1541690.10947  21318741.7974   21318739.6174
      2379.4844
 04  9  8 21 11 45.0000000  0  4G 8G13G23G27
  -3121258.08648  -2417257.70845  22629616.0004   22629614.9924
      3647.5164
   -939196.62949   -729523.62948  20172715.2584   20172712.0044
      1006.9694
   1176180.73349    901359.77647  21677729.5234   21677724.7624
     -1370.0164
  -2029863.87949  -1569497.45647  21311950.5394   21311948.7034
      2379.1564
 04  9  8 21 12  0.0000000  0  4G 8G13G23G27
  -3175971.40748  -2459891.43745  22619204.3524   22619203.9304
      3647.6094
   -954266.42549   -741266.32748  20169847.3674   20169844.0274
      1002.3444
   1196751.55249    917388.98047  21681644.0944   21681639.6954
     -1372.7664
  -2065549.56449  -1597304.47547  21305159.7424   21305158.1024
      2378.9534
 04  9  8 21 12 15.0000000  0  4G 8G13G23G27
  -3230679.00348  -2502520.70045  22608794.7734   22608792.8014
      3647.0634
   -969260.51049   -752950.02648  20166993.4064   20166990.6454
       997.1564
   1217370.00149    933455.28247  21685566.6174   21685563.0354
     -1376.1254
  -2101226.11449  -1625104.38647  21298370.8524   21298368.3834
      2378.1724
 04  9  8 21 12 30.0000000  0  5G 3G 8G13G23G27
    -26281.23315                  23013984.852
      2051.031
  -3285384.94748  -2545148.69645  22598384.0394   22598382.3094
      3647.1414
   -984182.78449   -764577.78448  20164154.3674   20164151.0664
       992.5474
   1238032.11249    949555.61047  21689499.2664   21689495.2854
     -1378.8284
  -2136897.41549  -1652900.20547  21291582.9304   21291580.9264
      2377.9694
 04  9  8 21 12 45.0000000  0  5G 3G 8G13G23G27
    -57000.143 4                  23008137.086
      2045.406
  -3340087.19448  -2587773.79445  22587974.6334   22587973.0434
      3647.2504
   -999031.48549   -776148.18747  20161328.5554   20161325.8364
       988.0164
   1258739.36649    965691.12546  21693439.5004   21693435.3834
     -1381.3914
  -2172561.75749  -1680690.58847  21284795.7664   21284794.2194
      2377.9844
 04  9  8 21 13  0.0000000  0  5G 3G 8G13G23G27
                                  23002307.742
      2039.094
  -3394789.84448  -2630399.20844  22577564.2344   22577563.4224
      3646.9844
  -1013810.69449   -787664.46548  20158516.4844   20158513.3634
       983.0634
   1279487.58649    981858.53447  21697388.4534   21697384.1994
     -1384.3914
  -2208223.45249  -1708478.92347  21278009.6804   21278008.0634
      2377.4694
 04  9  8 21 13 15.0000000  0  5G 3G 8G13G23G27
   -118175.22714                  22996496.672
      2033.281
  -3449490.34048  -2673022.95345  22567156.0164   22567154.7664
      3646.7974
  -1028517.72049   -799124.49148  20155717.6484   20155714.4964
       978.2504
   1300279.24649    998059.81347  21701344.9844   21701341.2034
     -1387.3444
  -2243879.81249  -1736263.09747  21271224.9384   21271223.0784
      2377.1094
 04  9  8 21 13 30.0000000  0  5G 3G 8G13G23G27
   -148631.419 4                  22990702.734
      2027.469
  -3504191.77548  -2715647.42245  22556746.9064   22556745.4024
      3646.7504
  -1043155.28649   -810530.40448  20152932.4844   20152929.2854
       973.3914
   1321111.23549   1014292.48946  21705308.7974   21705304.6454
     -1390.2504
  -2279533.88149  -1764045.49247  21264440.2584   21264437.4614
      2376.8134
 04  9  8 21 13 45.0000000  0  5G 3G 8G13G23G27
   -178998.841 3                  22984922.992
      2021.406
  -3558891.98048  -2758270.93545  22546337.8834   22546336.0864
      3646.5164
  -1057721.55649   -821880.75148  20150160.1174   20150157.9414
       968.5004
   1341985.28249   1030557.95446  21709280.9534   21709276.5394
     -1393.1564
  -2315183.78049  -1791824.63147  21257656.5084   21257653.6724
      2376.3134
 04  9  8 21 14  0.0000000  0  5G 3G 8G13G23G27
   -209273.00513                  22979165.664
      2014.828
  -3613586.75748  -2800890.22145  22535929.4534   22535928.4654
      3645.9694
  -1072212.17749   -833172.13448  20147402.8594   20147399.7664
       963.3444
   1362905.55349   1046859.45647  21713262.6334   21713257.5084
     -1396.3914
  -2350825.31049  -1819597.25447  21250874.0164   21250871.4224
      2375.6884
 04  9  8 21 14 15.0000000  0  5G 3G 8G13G23G27
   -239452.404 2                  22973417.969
      2009.422
  -3668274.58948  -2843504.08845  22525522.9304   22525521.2424
      3645.8594
  -1086625.59349   -844403.37147  20144660.3984   20144657.0434
       958.5164
   1383873.54848   1063198.11747  21717251.8524   21717248.6214
     -1399.2034
  -2386456.82749  -1847362.05647  21244092.7504   21244091.0984
      2375.3594
 04  9  8 21 14 30.0000000  0  5G 3G 8G13G23G27
   -269546.37113                  22967697.023
      2003.234
  -3722965.32248  -2886120.22245  22515114.5314   22515113.9884
      3645.9064
  -1100971.55349   -855582.05148  20141930.3594   20141927.2304
       953.9064
   1404879.05349   1079566.01846  21721249.6174   21721244.6374
     -1401.8594
  -2422088.42549  -1875126.93147  21237312.5554   21237310.9494
      2375.2034
 04  9  8 21 14 45.0000000  0  4G 8G13G23G27
  -3777656.09948  -2928736.40145  22504707.5944   22504706.5314
      3645.9064
  -1115247.08149   -866705.84948  20139213.6414   20139210.5984
       949.1884
   1425924.68349   1095965.20846  21725253.7344   21725250.0704
     -1404.6414
  -2457717.15349  -1902889.58047  21230533.1804   21230530.4344
      2374.9844
 04  9  8 21 15  0.0000000  0  5G 3G 8G13G23G27
    -21128.99314                  22956290.203
      1990.891
  -3832343.00748  -2971349.52345  22494300.7664   22494300.5824
      3645.4064
  -1129448.23749   -877771.68148  20136511.3524   20136508.2424
       944.0474
   1447014.40149   1112398.73046  21729266.8524   21729262.2304
     -1407.6564
  -2493339.30649  -1930647.10347  21223753.8834   21223751.8594
      2374.3134
 04  9  8 21 15 15.0000000  0  4G 8G13G23G27
  -3887027.48749  -3013960.77045  22483896.2114   22483894.7584
      3645.4534
  -1143576.36149   -888780.61348  20133822.8204   20133819.6914
       939.3284
   1468146.60749   1128865.35246  21733288.1644   21733284.8874
     -1410.3594
  -2528956.11349  -1958400.45047  21216976.5944   21216974.9694
      2374.1414
 04  9  8 21 15 30.0000000  0  4G 8G13G23G27
  -3941706.63148  -3056567.86545  22473489.6094   22473488.4064
      3645.0004
  -1157628.66949   -899730.46748  20131148.9304   20131145.6294
       934.2664
   1489323.87849   1145367.10846  21737318.7274   21737314.1174
     -1413.3594
  -2564565.03449  -1986147.66047  21210200.2664   21210197.9734
      2373.6414
 04  9  8 21 15 45.0000000  0  4G 8G13G23G27
  -3996381.80348  -3099171.87445  22463086.0084   22463084.6524
      3645.0314
  -1171606.32849   -910622.15447  20128488.7274   20128486.0944
       929.5004
   1510544.92949   1161902.95646  21741357.2734   21741352.7194
     -1416.0624
  -2600167.24949  -2013889.64247  21203425.3984   21203423.2274
      2373.2974
 04  9  8 21 16  0.0000000  0  4G 8G13G23G27
  -4051054.36748  -3141773.85245  22452681.9924   22452680.6334
      3644.5784
  -1185510.72349   -921456.75848  20125842.9614   20125839.5204
       924.3284
   1531808.07849   1178471.60946  21745404.2274   21745398.5434
     -1419.0944
  -2635764.30049  -2041627.60147  21196651.6334   21196649.4144
      2372.7504
 04  9  8 21 16 15.0000000  0  5G 3G 8G13G23G27
    -24793.56815                  22928093.859
      1960.516
  -4105724.40648  -3184373.85945  22442278.5554   22442276.6684
      3644.5164
  -1199341.76149   -932234.18448  20123210.9304   20123208.1454
       919.5784
   1553113.14649   1195072.95546  21749457.2584   21749452.3134
     -1421.8444
  -2671356.11249  -2069361.47047  21189878.6564   21189876.4694
      2372.5474
 04  9  8 21 16 30.0000000  0  5G 3G 8G13G23G27
    -54157.064 4                  22922503.930
      1954.813
  -4160394.74348  -3226974.10945  22431874.9614   22431873.3874
      3644.8284
  -1213102.28349   -942956.68048  20120592.3984   20120589.2624
       915.0474
   1574457.07349   1211704.55346  21753519.0234   21753515.0984
     -1424.1874
  -2706945.83849  -2097093.72947  21183106.6094   21183103.3714
      2372.6254
 04  9  8 21 16 45.0000000  0  5G 3G 8G13G23G27
    -83428.95545   -408892.62551  22916933.9694   22916932.6764
      1948.2814
  -4215063.09348  -3269572.78245  22421472.2974   22421471.0274
      3644.4384
  -1226789.87149   -953622.33247  20117987.9454   20117984.8834
       910.0004
   1595842.10449   1228368.19947  21757588.9064   21757584.4804
     -1427.0944
  -2742531.01449  -2124822.43447  21176334.6254   21176332.2424
      2372.1724
 04  9  8 21 17  0.0000000  0  5G 3G 8G13G23G27
   -112601.84744   -431624.76641  22911381.8754   22911380.9574
      1941.0634
  -4269721.95548  -3312164.09245  22411070.4844   22411069.6214
      3643.3284
  -1240396.99349   -964225.29348  20115398.2504   20115395.5044
       904.1564
   1617275.46249   1245069.49646  21761667.0164   21761662.8484
     -1430.8124
  -2778104.29849  -2152541.86147  21169564.9924   21169563.0474
      2370.8444
 04  9  8 21 17 15.0000000  0  5G 3G 8G13G23G27
   -141677.27745   -454280.96541  22905850.7194   22905847.9224
      1934.6094
  -4324372.96849  -3354749.26445  22400671.1414   22400669.6094
      3642.7664
  -1253925.47049   -974766.96948  20112823.7344   20112820.9884
       898.8914
   1638755.37049   1261807.07546  21765754.2034   21765751.0594
     -1433.8914
  -2813667.49249  -2180253.44148  21162797.7974   21162795.6294
      2370.1724
 04  9  8 21 17 30.0000000  0  5G 3G 8G13G23G27
   -170659.79744   -476864.65241  22900335.4534   22900332.2194
      1929.0314
  -4379020.97949  -3397332.12145  22390271.4694   22390270.6134
      3643.0784
  -1267379.81849   -985250.87848  20110264.0164   20110260.9184
       894.5314
   1660276.95249   1278577.10047  21769850.3594   21769846.3204
     -1436.0784
  -2849225.17749  -2207960.72547  21156031.6484   21156029.3674
      2370.3594
 04  9  8 21 17 45.0000000  0  5G 3G 8G13G23G27
                                  22894840.523
      1923.141
  -4433663.00748  -3439910.30245  22379873.4534   22379872.9964
      3642.9224
  -1280756.79249   -995674.51148  20107718.1954   20107715.4844
       889.4694
   1681842.98049   1295381.77747  21773954.6414   21773949.9574
     -1438.9374
  -2884774.62049  -2235661.58147  21149266.7194   21149264.5234
      2369.8914
 04  9  8 21 18  0.0000000  0  5G 3G 8G13G23G27
   -228336.438 3                  22889356.234
      1916.484
  -4488299.17049  -3482483.92645  22369475.8524   22369475.6644
      3642.4384
  -1294057.16449  -1006038.44348  20105187.0864   20105183.9344
       884.3444
   1703452.87549   1312220.60846  21778066.3914   21778061.4064
     -1441.9064
  -2920316.08349  -2263356.24147  21142503.0944   21142500.9574
      2369.4224
 04  9  8 21 18 15.0000000  0  5G 3G 8G13G23G27
   -257028.965 4                  22883901.063
      1909.516
  -4542928.04249  -3525051.83645  22359080.9844   22359079.8714
      3641.5314
  -1307279.01749  -1016341.17948  20102670.9774   20102668.2424
       878.6414
   1725108.19249   1329094.86946  21782186.7034   21782182.9304
     -1445.3124
  -2955847.97649  -2291043.41847  21135741.5634   21135739.2344
      2368.2504
 04  9  8 21 18 30.0000000  0  5G 3G 8G13G23G27
   -285618.91044   -566443.27051  22878457.0474   22878455.5904
      1903.1884
  -4597544.54549  -3567610.13245  22348688.7274   22348686.5044
      3641.1254
  -1320417.27149  -1026578.78848  20100171.1254   20100167.8364
       873.5314
   1746813.75849   1346008.27846  21786317.7504   21786313.6604
     -1448.2344
  -2991365.40849  -2318719.33047  21128983.0314   21128980.7234
      2367.8134
 04  9  8 21 18 45.0000000  0  5G 3G 8G13G23G27
   -314112.56444   -588646.01241  22873035.8054   22873033.2894
      1896.7664
  -4652155.32949  -3610163.96045  22338295.6644   22338294.8984
      3640.9694
  -1333478.64049  -1036756.48348  20097685.3984   20097682.7934
       868.5944
   1768562.61349   1362955.42047  21790456.5084   21790452.3484
     -1450.9534
  -3026875.17549  -2346389.27447  21122225.6024   21122223.9304
      2367.5004
 04  9  8 21 19  0.0000000  0  5G 3G 8G13G23G27
   -342509.11044   -610773.19541  22867631.8444   22867630.4964
      1889.5944
  -4706759.56948  -3652712.70745  22327904.8594   22327903.4884
      3639.8134
  -1346462.21849  -1046873.56548  20095214.8524   20095212.0784
       862.6724
   1790355.47449   1379936.81746  21794603.3284   21794598.9344
     -1454.6414
  -3062376.46249  -2374052.61447  21115470.0784   21115468.1294
      2366.1884
 04  9  8 21 19 15.0000000  0  5G 3G 8G13G23G27
   -370801.36945   -632819.16041  22862248.1414   22862246.5944
      1883.0004
  -4761350.40149  -3695250.98245  22317516.8054   22317516.2664
      3639.3444
  -1359361.20849  -1056924.72347  20092760.3134   20092757.3444
       857.5004
   1812199.12749   1396957.81146  21798759.7814   21798755.7504
     -1457.5944
  -3097862.32449  -2401703.93147  21108717.5394   21108715.2664
      2365.5474
 04  9  8 21 19 30.0000000  0  5G 3G 8G13G23G27
   -398989.56044   -654783.93341  22856885.2734   22856881.9694
      1875.7504
  -4815928.14949  -3737779.09245  22307130.9064   22307129.8134
      3638.0944
  -1372175.85649  -1066910.17747  20090322.0314   20090319.0744
       851.4844
   1834092.93249   1414017.92046  21802926.3754   21802922.0514
     -1461.2194
  -3133333.33749  -2429343.68147  21101967.6334   21101964.8714
      2364.2664
 04  9  8 21 19 45.0000000  0  5G 3G 8G13G23G27
                                  22851537.7664   22851538.3444
      1869.5944
  -4870494.11849  -3780298.00745  22296746.8834   22296746.2624
      3637.6884
  -1384907.31549  -1076830.78948  20087899.0164   20087896.1954
       846.2974
   1856035.57949   1431116.06546  21807101.3914   21807098.1724
     -1464.1094
  -3168790.67049  -2456972.77047  21095220.0314   21095217.6644
      2363.7034
 04  9  8 21 19 59.9990000  0  4G 8G13G23G27
  -4925044.09849  -3822804.48545  22286367.5894   22286365.4014
      3635.5164
  -1397554.04349  -1086685.38848  20085492.5424   20085489.4684
       839.3594
   1878026.03149   1448251.45746  21811286.4564   21811282.2494
     -1468.7344
  -3204231.36949  -2484588.89547  21088475.9404   21088473.4834
      2361.3594
 04  9  8 21 20 14.9990000  0  4G 8G13G23G27
  -4979578.42049  -3865298.72645  22275989.3944   22275989.0854
      3634.6254
  -1410110.74949  -1096469.84548  20083102.9254   20083099.7414
       833.7974
   1900073.91449   1465431.61047  21815482.2304   21815478.6404
     -1472.0164
  -3239653.32049  -2512190.40847  21081735.2924   21081732.6404
      2360.4844
 04  9  8 21 20 29.9990000  0  5G 3G 8G13G23G27
    -48569.41854   -713457.66751  22835628.1834   22835627.3514
      1847.1414
  -5034101.53249  -3907784.26645  22265613.8394   22265612.9954
      3634.0164
  -1422584.73449  -1106189.84048  20080729.3234   20080726.4374
       828.3914
   1922169.56149   1482648.94746  21819686.7844   21819683.0384
     -1475.0944
  -3275062.30649  -2539781.83447  21074997.4334   21074994.7844
      2359.6414
 04  9  8 21 20 44.9990000  0  5G 3G 8G13G23G27
    -76229.18153   -735010.63751  22830365.4724   22830363.3434
      1840.5634
  -5088607.40549  -3950256.34345  22255241.5424   22255241.4014
      3633.3594
  -1434969.96349  -1115840.65847  20078372.6984   20078369.5814
       822.9224
   1944318.83149   1499908.09646  21823901.8784   21823897.5344
     -1478.1874
  -3310452.41349  -2567358.52247  21068262.8084   21068260.6674
      2358.9224
 04  9  8 21 20 59.9990000  0  5G 3G 8G13G23G27
   -103782.07753   -756480.44151  22825126.2454   22825120.3864
      1832.7504
  -5143098.37049  -3992716.82246  22244872.5654   22244871.1594
      3632.0314
  -1447268.73549  -1125424.12248  20076031.9644   20076028.9684
       816.7974
   1966519.09649   1517206.99546  21828126.0264   21828121.3664
     -1481.9374
  -3345826.03349  -2594922.38047  21061531.2144   21061529.3084
      2357.5314
 04  9  8 21 21 14.9990000  0  5G 3G 8G13G23G27
   -131234.33844   -777871.84841  22819897.7534   22819895.8554
      1826.7344
  -5197580.33149  -4035170.28645  22234504.9874   22234503.6984
      3631.9064
  -1459486.84249  -1134944.73848  20073706.9404   20073704.1324
       811.8914
   1988764.25949   1534540.86946  21832359.4174   21832355.3584
     -1484.4224
  -3381188.99049  -2622477.93247  21054802.2374   21054800.1404
      2357.2504
 04  9  8 21 21 29.9990000  0  5G 3G 8G13G23G27
   -158574.34145   -799175.80241  22814693.9254   22814693.0544
      1818.9224
  -5252042.22049  -4077608.08745  22224140.8944   22224139.9834
      3630.1724
  -1471613.19449  -1144393.84048  20071399.7374   20071396.2614
       805.4064
   2011065.40049   1551918.34646  21836603.5034   21836598.5424
     -1488.5314
  -3416530.30849  -2650016.61347  21048077.0654   21048074.2184
      2355.4224
 04  9  8 21 21 44.9990000  0  5G 3G 8G13G23G27
   -185805.62746   -820394.95242  22809512.0584   22809511.3154
      1811.7344
  -5306487.27449  -4120032.78845  22213780.3394   22213779.3704
      3629.0314
  -1483651.12549  -1153774.06448  20069108.8784   20069105.7334
       799.4384
   2033418.84849   1569336.56746  21840856.8864   21840852.8314
     -1492.0314
  -3451853.43249  -2677541.12347  21041355.0814   21041353.1164
      2354.1564
 04  9  8 21 21 59.9990000  0  5G 3G 8G13G23G27
   -212927.30246   -841528.67842  22804351.6514   22804349.3354
      1804.7034
  -5360914.93949  -4162443.95145  22203423.2144   22203421.1204
      3628.0164
  -1495599.81849  -1163084.73748  20066835.0974   20066831.8584
       793.6884
   2055825.29149   1586796.10846  21845121.2064   21845116.4094
     -1495.4224
  -3487157.59149  -2705050.86047  21034636.3394   21034634.5624
      2353.0634
 04  9  8 21 22 14.9990000  0  5G 3G 8G13G23G27
   -239938.55245   -862576.43442  22799210.4954   22799208.8234
      1796.7814
  -5415324.43649  -4204840.94245  22193069.0114   22193068.2884
      3626.3754
  -1507458.65249  -1172325.39247  20064578.3554   20064575.1904
       787.2814
   2078285.13849   1604297.26746  21849394.6364   21849390.9874
     -1499.3754
  -3522442.26049  -2732545.40847  21027922.4874   21027920.0264
      2351.3444
 04  9  8 21 22 29.9990000  0  5G 3G 8G13G23G27
   -266840.83345   -883539.18642  22794091.0034   22794090.0854
      1790.0314
  -5469717.49049  -4247225.12245  22182718.8234   22182716.9994
      3625.6724
  -1519229.22849  -1181497.27647  20062338.2614   20062335.2804
       781.7974
   2100796.54849   1621838.60246  21853678.3004   21853674.2334
     -1502.3754
  -3557709.03649  -2760026.00547  21021211.6834   21021209.5304
      2350.5784
 04  9  8 21 22 44.9990000  0  5G 3G 8G13G23G27
   -293630.98745   -904414.62742  22788992.3154   22788991.8704
      1782.1724
  -5524090.69849  -4289593.83446  22172371.6204   22172371.0654
      3624.0314
  -1530908.32749  -1190597.87347  20060115.4724   20060113.0264
       775.3754
   2123362.48949   1639422.41446  21857973.0504   21857968.8194
     -1506.4534
  -3592954.93249  -2787490.33447  21014504.0114   21014502.4054
      2348.8444
 04  9  8 21 22 59.9990000  0  5G 3G 8G13G23G27
   -320309.40045   -925203.02642  22783916.7614   22783915.3514
      1775.2344
  -5578444.83149  -4331947.69545  22162028.5194   22162026.8474
      3623.4224
  -1542496.49349  -1199627.61848  20057910.8784   20057907.4954
       769.9384
   2145982.25349   1657048.18746  21862276.8234   21862272.8584
     -1509.2974
  -3628180.39249  -2814938.74147  21007800.9724   21007798.9994
      2348.1414
 04  9  8 21 23 14.9990000  0  5G 3G 8G13G23G27
   -346874.85244   -945903.32042  22778862.0114   22778860.5854
      1767.1724
  -5632778.85349  -4374285.88845  22151688.8944   22151687.8234
      3621.5634
  -1553992.47349  -1208585.54048  20055723.2224   20055720.6594
       763.3134
   2168656.97149   1674716.78246  21866591.9094   21866588.0114
     -1513.5624
  -3663384.35749  -2842370.40447  21001101.9874   21001099.6634
      2346.1414
 04  9  8 21 23 29.9990000  0  5G 3G 8G13G23G27
   -373326.68645   -966515.14942  22773828.9874   22773827.2104
      1759.2664
  -5687092.01249  -4416607.79745  22141353.2694   22141352.1444
      3619.8134
  -1565395.73449  -1217471.19147  20053552.9804   20053550.2064
       756.8134
   2191386.85549   1692428.33746  21870917.0424   21870913.2144
     -1517.4224
  -3698566.41749  -2869784.99347  20994407.2614   20994404.4014
      2344.4064
 04  9  8 21 23 44.9990000  0  5G 3G 8G13G23G27
   -399660.34344   -987034.97142  22768817.0584   22768815.3624
      1751.8134
  -5741380.10449  -4458910.18846  22131023.0814   22131021.8784
      3618.4384
  -1576701.85549  -1226281.16947  20051401.7764   20051399.0584
       750.5784
   2214176.04149   1710186.11846  21875253.4874   21875249.9994
     -1521.2664
  -3733722.14249  -2897179.06647  20987717.1674   20987715.3044
      2342.8594
 04  9  8 21 23 59.9990000  0  5G 3G 8G13G23G27
   -425880.05144  -1007465.80542  22763827.7144   22763826.1514
      1744.0164
  -5795647.31848  -4501196.30845  22120696.2374   22120695.4914
      3617.2194
  -1587915.11349  -1235018.77648  20049268.4334   20049265.4914
       744.5474
   2237020.15649   1727986.71346  21879601.1514   21879597.1634
     -1524.6724
  -3768855.84749  -2924555.97448  20981031.5344   20981029.5074
      2341.5944
 04  9  8 21 24 14.9990000  0  5G 3G 8G13G23G27
   -451985.25145  -1027807.51042  22758860.1834   22758858.4444
      1736.3444
  -5849893.14148  -4543465.75845  22110373.2534   22110371.9874
      3615.5944
  -1599035.18549  -1243683.77448  20047152.0194   20047149.3824
       738.0784
   2259919.36049   1745830.24045  21883958.1904   21883953.9524
     -1528.6094
  -3803967.26549  -2951915.51747  20974349.9404   20974347.2924
      2339.8594
 04  9  8 21 24 29.9990000  0  5G 3G 8G13G23G27
   -477972.33445  -1048057.22542  22753913.8554   22753913.5344
      1728.1564
  -5904114.01049  -4585715.76945  22100055.9804   22100054.2804
      3613.5004
  -1610058.17949  -1252273.12647  20045054.1054   20045051.4404
       731.2974
   2282877.17548   1763719.39545  21888326.2144   21888323.6054
     -1532.8124
  -3839052.95449  -2979255.01247  20967673.6514   20967670.9644
      2337.8284
 04  9  8 21 24 44.9990000  0  5G 3G 8G13G23G27
   -503839.87146  -1068213.74942  22748992.4804   22748991.1404
      1720.4064
  -5958308.65049  -4627945.33345  22089743.0344   22089741.4604
      3612.0164
  -1620982.82649  -1260785.84347  20042975.4334   20042972.4914
       724.9694
   2305894.67949   1781655.09446  21892707.9484   21892703.8004
     -1536.6724
  -3874111.43249  -3006573.30148  20961001.9094   20960999.0544
      2336.2194
 04  9  8 21 24 59.9990000  0  5G 3G 8G13G23G27
   -529593.48947  -1088281.47542  22744091.4094   22744089.9254
      1713.1094
  -6012482.95149  -4670159.06745  22079433.5584   22079432.7844
      3610.8284
  -1631815.20049  -1269226.65847  20040913.6904   20040911.2804
       718.9844
   2328965.88049   1799632.63546  21897097.7844   21897094.6054
     -1539.9844
  -3909148.54349  -3033874.94547  20954334.8234   20954332.0654
      2334.9384
 04  9  8 21 25 14.9990000  0  5G 3G 8G13G23G27
   -555231.28845  -1108258.95742  22739211.5584   22739210.9334
      1705.2814
  -6066635.04849  -4712355.49345  22069128.8394   22069128.1404
      3609.2974
  -1642553.20649  -1277593.95048  20038870.9644   20038867.3274
       712.5944
   2352092.49248   1817653.30645  21901498.8474   21901494.2144
     -1543.7504
  -3944162.50149  -3061158.55247  20947671.8154   20947669.5544
      2333.3594
 04  9  8 21 25 29.9990000  0  5G 3G 8G13G23G27
   -580751.15945  -1128144.58442  22734355.8864   22734355.4094
      1697.5944
  -6120762.87449  -4754533.00745  22058828.6284   22058827.7884
      3607.9384
  -1653194.90549  -1285886.19148  20036845.8234   20036842.8584
       706.4694
   2375276.27049   1835718.53645  21905910.6284   21905906.1984
     -1547.2194
  -3979151.44549  -3088422.66647  20941013.5344   20941011.5584
      2331.9534
 04  9  8 21 25 44.9990000  0  5G 3G 8G13G23G27
   -606153.37645  -1147938.50242  22729521.9404   22729521.0774
      1689.4694
  -6174866.72649  -4796691.80146  22048533.5264   22048531.6714
      3606.1094
  -1663740.49349  -1294103.53248  20034838.7534   20034836.0074
       699.8444
   2398516.67049   1853827.91446  21910332.5894   21910328.7264
     -1551.2344
  -4014115.65849  -3115667.49047  20934359.9954   20934357.6164
      2330.1414
 04  9  8 21 25 59.9990000  0  5G 3G 8G13G23G27
   -631437.67745  -1167640.50642  22724711.2454   22724709.5544
      1682.4534
  -6228946.45048  -4838831.83545  22038242.4094   22038240.9954
      3605.0944
  -1674189.96749  -1302246.00047  20032850.8084   20032847.8664
       694.0314
   2421813.72149   1871981.44246  21914766.5894   21914762.8004
     -1554.4224
  -4049055.08649  -3142893.02747  20927711.2454   20927708.7374
      2329.0784
 04  9  8 21 26 14.9990000  0  5G 3G 8G13G23G27
   -656605.78245  -1187252.02642  22719921.6204   22719920.8864
      1673.7974
  -6283003.99049  -4880954.58445  22027955.3864   22027953.2494
      3602.8444
  -1684544.99849  -1310314.85748  20030880.0814   20030876.9174
       686.8914
   2445165.39549   1890177.53745  21919210.0034   21919205.7614
     -1558.8284
  -4083971.61949  -3170100.70447  20921067.0194   20921064.5464
      2326.7344
 04  9  8 21 26 29.9990000  0  5G 3G 8G13G23G27
   -681656.82545  -1206772.37642  22715157.0194   22715154.0304
      1666.1414
  -6337038.54349  -4923059.42246  22017672.8154   22017671.2024
      3601.3594
  -1694804.78449  -1318309.49548  20028927.6904   20028924.7454
       680.6564
   2468572.38549   1908416.73646  21923664.5504   21923659.1014
     -1562.4374
  -4118864.34649  -3197289.84847  20914426.8944   20914424.5264
      2325.2664
 04  9  8 21 26 44.9990000  0  5G 3G 8G13G23G27
   -706594.93943  -1226204.67641  22710408.7454   22710408.4994
      1658.4534
  -6391054.08548  -4965149.44245  22007393.3784   22007392.3354
      3600.1884
  -1704973.45049  -1326233.14847  20026992.6444   20026989.4764
       674.6724
   2492030.12648   1926695.45146  21928127.7694   21928124.8664
     -1565.7504
  -4153737.68049  -3224463.87847  20907790.8554   20907788.7574
      2324.0944
 04  9  8 21 26 59.9990000  0  4G 8G13G23G27
  -6445050.15048  -5007224.27946  21997118.8394   21997117.5654
      3598.8444
  -1715050.41049  -1334085.33048  20025075.2534   20025071.9954
       668.3914
   2515539.16249   1945014.14246  21932602.2694   21932597.8394
     -1569.3444
  -4188590.96749  -3251622.27448  20901158.3234   20901156.3824
      2322.5944
 04  9  8 21 27 14.9990000  0  5G 3G 8G13G23G27
   -756131.02054  -1264804.21551  22700982.2694   22700982.6984
      1643.1414
  -6499022.68448  -5049280.78546  21986848.3784   21986846.9604
      3597.2194
  -1725031.67349  -1341862.93847  20023176.2844   20023172.5194
       662.1094
   2539103.24549   1963375.78046  21937086.1514   21937082.0854
     -1572.8914
  -4223420.19049  -3278761.92547  20894530.4484   20894527.9214
      2320.9694
 04  9  8 21 27 29.9990000  0  5G 3G 8G13G23G27
   -780722.85745  -1283966.63041  22696304.2064   22696303.1634
      1635.7194
  -6552974.82048  -5091321.38946  21976581.3004   21976580.2024
      3596.3444
  -1734920.32049  -1349568.37247  20021293.8474   20021291.1204
       656.4064
   2562719.13849   1981777.73446  21941579.8004   21941575.9724
     -1575.8914
  -4258228.67349  -3305885.40947  20887907.0424   20887904.3474
      2320.0784
 04  9  8 21 27 44.9990000  0  5G 3G 8G13G23G27
   -805196.47843  -1303037.06141  22691645.8864   22691645.6944
      1627.5634
  -6606903.20048  -5133343.49245  21966319.2694   21966317.9604
      3594.6254
  -1744712.92649  -1357198.97247  20019431.0974   20019427.8514
       649.8284
   2586390.10449   2000222.60246  21946084.4254   21946080.2064
     -1579.7344
  -4293012.88549  -3332990.00147  20881287.8944   20881285.4914
      2318.2974
 04  9  8 21 27 59.9990000  0  5G 3G 8G13G23G27
   -829555.75214                  22687012.222
      1620.000
  -6660812.57848  -5175350.77946  21956060.5654   21956059.0734
      3593.1414
  -1754414.39249  -1364758.57247  20017584.2534   20017580.9684
       643.5634
   2610110.98449   2018706.35145  21950598.1514   21950594.2414
     -1583.2504
  -4327777.91049  -3360079.62847  20874671.7614   20874670.0114
      2316.8914
 04  9  8 21 28 14.9990000  0  5G 3G 8G13G23G27
   -853799.03145  -1340908.91352  22682398.6674   22682396.9914
      1612.4064
  -6714699.65848  -5217340.69346  21945806.1204   21945804.6244
      3591.7194
  -1764021.33249  -1372244.50647  20015755.9564   20015753.1834
       637.2344
   2633884.97249   2037231.52146  21955122.6124   21955118.4174
     -1586.6724
  -4362520.26849  -3387151.58947  20868060.3234   20868058.6364
      2315.4064
 04  9  8 21 28 29.9990000  0  5G 3G 8G13G23G27
   -877923.10045  -1359706.88842  22677806.9334   22677805.9094
      1604.4694
  -6768562.07848  -5259311.39646  21935556.4954   21935555.3744
      3590.1884
  -1773531.32349  -1379654.89748  20013946.8084   20013943.7264
       630.9064
   2657714.28749   2055799.80246  21959657.2064   21959653.1404
     -1590.2974
  -4397237.64249  -3414204.09447  20861454.3864   20861452.5304
      2313.8444
 04  9  8 21 28 44.9990000  0  5G 3G 8G13G23G27
   -901928.95045  -1378412.80842  22673237.7534   22673237.5154
      1595.9534
  -6822401.18548  -5301263.93745  21925311.6834   21925309.4604
      3588.0634
  -1782945.55049  -1386990.67647  20012155.1904   20012152.2024
       624.0474
   2681597.56349   2074410.10546  21964201.9404   21964197.8704
     -1594.3914
  -4431931.35849  -3441238.14747  20854852.7454   20854850.1054
      2311.7504
 04  9  8 21 28 59.9990000  0  5G 3G 8G13G23G27
   -925812.74645  -1397023.55542  22668694.4404   22668692.9804
      1588.4224
  -6876213.13048  -5343195.30445  21915070.4564   21915070.0264
      3586.8444
  -1792260.24249  -1394248.87448  20010382.5584   20010379.7884
       617.9384
   2705538.31248   2093065.22645  21968757.8784   21968753.7414
     -1597.7194
  -4466597.60149  -3468250.80747  20848255.4954   20848253.4994
      2310.4224
 04  9  8 21 29 14.9990000  0  5G 3G 8G13G23G27
   -949575.43446  -1415539.91443  22664172.7224   22664171.1164
      1580.3444
  -6929998.61948  -5385106.07546  21904835.8554   21904834.3314
      3585.0634
  -1801476.42549  -1401430.33148  20008629.0034   20008625.8474
       611.3754
   2729535.39848   2111764.22045  21973323.6904   21973321.0384
     -1601.4374
  -4501237.42249  -3495242.87347  20841663.9564   20841661.7414
      2308.6564
 04  9  8 21 29 29.9990000  0  5G 3G 8G13G23G27
   -973216.79547  -1433961.75643  22659673.8864   22659672.1054
      1571.9064
  -6983757.77048  -5426996.29446  21894606.1674   21894604.7104
      3582.9844
  -1810593.89449  -1408534.85247  20006893.4724   20006890.4914
       604.3754
   2753588.64048   2130506.97645  21977901.0974   21977897.9684
     -1605.5164
  -4535850.80849  -3522214.33347  20835076.9174   20835074.9134
      2306.6094
 04  9  8 21 29 44.9990000  0  5G 3G 8G13G23G27
   -996731.26546  -1452284.71443  22655198.7614   22655197.9374
      1563.7664
  -7037484.95548  -5468861.62446  21884382.3704   21884380.7804
      3581.1254
  -1819607.05649  -1415558.11147  20005178.7534   20005175.9764
       597.8134
   2777703.59949   2149297.82545  21982491.1124   21982486.2064
     -1609.3284
  -4570432.10849  -3549160.79947  20828496.7304   20828494.5774
      2304.6884
 04  9  8 21 29 59.9990000  0  5G 3G 8G13G23G27
  -1020124.27146  -1470513.04543  22650746.8944   22650745.9874
      1555.2034
  -7091185.79148  -5510706.41446  21874163.1444   21874161.5154
      3578.9534
  -1828521.50849  -1422504.44548  20003482.3624   20003479.3554
       590.7194
   2801874.52248   2168132.27145  21987089.8784   21987085.6014
     -1613.5474
  -4604987.04549  -3576086.72747  20821920.8154   20821918.9404
      2302.5474
 04  9  8 21 30 14.9990000  0  5G 3G 8G13G23G27
  -1043389.36046  -1488641.62543  22646319.9804   22646319.2844
      1546.3594
  -7144853.79048  -5552525.61846  21863950.8944   21863949.0734
      3576.4064
  -1837330.84749  -1429368.86848  20001805.8784   20001803.3084
       583.4384
   2826107.43648   2187015.03445  21991701.5424   21991697.0504
     -1617.9844
  -4639509.22449  -3602987.12747  20815351.3864   20815349.3744
      2300.0164
 04  9  8 21 30 29.9990000  0  5G 3G 8G13G23G27
  -1066521.45646  -1506666.58542  22641917.3474   22641916.1514
      1537.0784
  -7198484.00948  -5594315.38446  21853745.0344   21853743.6404
      3573.5314
  -1846029.93249  -1436147.38148  20000150.5894   20000147.6834
       575.6094
   2850407.25348   2205949.92345  21996324.7924   21996321.7924
     -1622.8444
  -4673993.63249  -3629858.08047  20808789.1124   20808787.0194
      2297.0314
 04  9  8 21 30 44.9990000  0  5G 3G 8G13G23G27
  -1089517.07346  -1524585.27742  22637541.3554   22637540.1324
      1528.8134
  -7252073.20448  -5636073.17946  21843547.5114   21843545.4994
      3571.5164
  -1854615.62049  -1442837.53348  19998516.8704   19998513.5074
       568.8134
   2874777.08548   2224939.35545  22000962.5264   22000959.4764
     -1626.6874
  -4708436.89949  -3656696.99648  20802235.1904   20802233.0694
      2295.0784
 04  9  8 21 30 59.9990000  0  5G 3G 8G13G23G27
  -1112385.88746  -1542405.11142  22633190.5194   22633189.4174
      1520.3914
  -7305631.12848  -5677806.61146  21833355.7844   21833354.4214
      3569.6094
  -1863097.60549  -1449446.88248  19996902.6984   19996899.7224
       562.0784
   2899206.98348   2243975.60046  22005611.1904   22005608.3784
     -1630.5784
  -4742849.08649  -3683511.68348  20795687.0344   20795684.6084
      2293.1724
 04  9  8 21 31 14.9990000  0  5G 3G 8G13G23G27
  -1135127.27146  -1560125.67242  22628863.1514   22628861.7334
      1511.4224
  -7359156.80648  -5719514.93446  21823170.2694   21823168.9444
      3566.9224
  -1871475.26449  -1455974.95548  19995308.6594   19995305.6124
       554.6254
   2923697.34848   2263058.97646  22010272.5974   22010268.2304
     -1635.1874
  -4777229.30249  -3710301.47047  20789144.3864   20789141.7374
      2290.5164
 04  9  8 21 31 29.9990000  0  5G 3G 8G13G23G27
  -1157733.87746  -1577741.15843  22624561.4404   22624559.7104
      1502.9534
  -7412643.27549  -5761192.66146  21812991.0734   21812990.4014
      3564.8444
  -1879741.33549  -1462416.04047  19993735.3154   19993732.6794
       547.7504
   2948255.39748   2282195.13045  22014945.1514   22014941.2764
     -1639.0164
  -4811570.41549  -3737060.76747  20782608.9254   20782606.7414
      2288.4694
 04  9  8 21 31 44.9990000  0  5G 3G 8G13G23G27
  -1180210.66046  -1595255.53743  22620283.3154   22620282.6124
      1494.1564
  -7466095.45548  -5802843.70646  21802820.5034   21802818.9724
      3562.2974
  -1887900.84249  -1468774.10847  19992182.6364   19992179.9254
       540.3594
   2972875.88548   2301379.87245  22019629.8234   22019626.7264
     -1643.4064
  -4845877.42249  -3763793.50447  20776081.2144   20776078.5304
      2286.0004
 04  9  8 21 31 59.9990000  0  5G 3G 8G13G23G27
  -1202557.90645  -1612668.95742  22616030.1904   22616029.6594
      1485.4844
  -7519513.83848  -5844468.41146  21792654.5814   21792653.5694
      3560.1094
  -1895953.92949  -1475049.25247  19990650.8154   19990647.8824
       533.4064
   2997558.22748   2320612.81345  22024327.7454   22024323.7654
     -1647.5164
  -4880150.72449  -3790499.98347  20769558.7764   20769557.0584
      2283.7814
 04  9  8 21 32 14.9990000  0  5G 3G 8G13G23G27
  -1224772.61947  -1629979.16543  22611803.6594   22611802.8434
      1476.5474
  -7572895.08448  -5886064.15046  21782495.9404   21782495.2534
      3557.5004
  -1903897.72849  -1481239.22247  19989138.6124   19989135.5734
       525.9384
   3022305.26548   2339896.20145  22029036.1514   22029032.6904
     -1651.9844
  -4914387.36149  -3817177.86947  20763043.7374   20763041.9444
      2281.2034
 04  9  8 21 32 29.9990000  0  5G 3G 8G13G23G27
  -1246855.71848  -1647186.76443  22607601.6444   22607600.5934
      1467.8754
  -7626240.27148  -5927631.81846  21772345.5194   21772344.1444
      3555.1564
  -1911733.17749  -1487344.76948  19987647.6594   19987644.8004
       518.7814
   3047115.88548   2359229.11945  22033757.5814   22033753.7884
     -1656.1094
  -4948588.38249  -3843828.00747  20756535.3084   20756533.1364
      2278.9064
 04  9  8 21 32 44.9990000  0  5G 3G 8G13G23G27
  -1268804.79647  -1664289.92243  22603425.8784   22603423.7304
      1459.0314
  -7679547.22948  -5969169.69846  21762201.6754   21762200.1874
      3552.7344
  -1919457.94049  -1493364.07648  19986177.6124   19986174.9914
       511.5004
   3071992.07548   2378613.14945  22038491.4954   22038488.2024
     -1660.3594
  -4982751.52449  -3870448.64447  20750034.8154   20750032.2724
      2276.4844
 04  9  8 21 32 59.9990000  0  5G 3G 8G13G23G27
  -1290626.64347  -1681294.03142  22599271.8624   22599270.6834
      1450.8754
  -7732822.67148  -6010683.01645  21752063.1754   21752062.3584
      3551.0314
  -1927078.93949  -1499302.52447  19984727.3944   19984724.5384
       504.9064
   3096926.91548   2398042.85845  22043236.0114   22043233.3084
     -1663.9844
  -5016883.64149  -3897045.08648  20743539.4404   20743537.2454
      2274.7504
 04  9  8 21 33 14.9990000  0  5G 3G 8G13G23G27
  -1312320.79646  -1698198.52743  22595143.4094   22595143.1284
      1442.0784
  -7786066.25148  -6052171.49946  21741931.1444   21741929.8904
      3548.5634
  -1934595.92149  -1505159.93348  19983297.2924   19983293.9444
       497.7814
   3121920.55048   2417518.35645  22047993.4724   22047989.3864
     -1668.0474
  -5050984.27249  -3923617.02147  20737050.8944   20737048.3554
      2272.4694
 04  9  8 21 33 29.9990000  0  5G 3G 8G13G23G27
  -1333884.69147  -1715001.53643  22591040.2924   22591039.7334
      1433.3284
  -7839275.52348  -6093633.25246  21731806.1904   21731804.7724
      3546.2504
  -1942006.08349  -1510934.08748  19981886.9954   19981884.1124
       490.5634
   3146975.15148   2437041.37545  22052761.3084   22052756.9724
     -1672.2344
  -5085051.13949  -3950162.61647  20730567.4804   20730565.9014
      2270.0164
 04  9  8 21 33 44.9990000  0  5G 3G 8G13G23G27
  -1355316.06346  -1731701.27942  22586961.1754   22586960.4374
      1424.2974
  -7892448.13749  -6135066.46946  21721688.0264   21721686.2804
      3543.5784
  -1949307.34149  -1516623.39948  19980497.7064   19980494.3274
       483.1414
   3172092.89648   2456613.57444  22057540.3864   22057537.3744
     -1676.5784
  -5119081.95949  -3976680.14647  20724091.6364   20724089.3744
      2267.4694
 04  9  8 21 33 59.9990000  0  5G 3G 8G13G23G27
  -1376613.89146  -1748296.97643  22582909.5344   22582907.6984
      1415.5004
  -7945583.03248  -6176470.26946  21711576.3154   21711574.9954
      3541.1724
  -1956498.79649  -1522227.12847  19979129.2924   19979125.8864
       475.8284
   3197274.47248   2476235.59145  22062332.5114   22062328.1284
     -1680.8444
  -5153075.85949  -4003168.89247  20717622.7144   20717620.5894
      2265.0784
 04  9  8 21 34 14.9990000  0  5G 3G 8G13G23G27
  -1397787.56146  -1764795.94242  22578879.7534   22578879.3154
      1407.4064
  -7998689.90949  -6217852.22146  21701470.1754   21701469.1944
      3539.3914
  -1963589.80049  -1527752.59748  19977779.6364   19977776.9604
       469.2974
   3222510.17348   2495899.73345  22067134.3474   22067131.7654
     -1684.2504
  -5187042.22649  -4029636.19447  20711159.1674   20711157.2064
      2263.4064
 04  9  8 21 34 29.9990000  0  5G 3G 8G13G23G27
  -1418832.73846  -1781194.74042  22574874.4014   22574873.5264
      1399.0314
  -8051764.12248  -6259208.73246  21691370.3234   21691369.8274
      3537.5164
  -1970576.09049  -1533196.46048  19976450.2374   19976447.6444
       462.5474
   3247804.36648   2515609.47745  22071948.0264   22071944.4214
     -1687.9224
  -5220976.67249  -4056078.61447  20704701.8554   20704699.9684
      2261.4844
 04  9  8 21 34 44.9990000  0  5G 3G 8G13G23G27
  -1439754.52647  -1797497.43843  22570894.5194   22570892.7494
      1390.7034
  -8104811.12149  -6300544.03346  21681275.9874   21681275.3314
      3535.5944
  -1977462.81249  -1538562.74047  19975140.0584   19975137.2374
       455.7504
   3273151.60548   2535360.52045  22076771.8704   22076768.0654
     -1691.5314
  -5254884.50449  -4082500.29647  20698249.4174   20698247.1944
      2259.6564
 04  9  8 21 34 59.9990000  0  5G 3G 8G13G23G27
  -1460552.27546  -1813703.47442  22566937.1674   22566935.1874
      1381.9534
  -8157830.43248  -6341857.78046  21671186.9644   21671185.5544
      3533.2664
  -1984249.48849  -1543851.07048  19973848.0504   19973845.2494
       448.7194
   3298552.19848   2555153.18245  22081605.6124   22081601.0654
     -1695.5474
  -5288765.24049  -4108900.85947  20691802.2064   20691799.8974
      2257.3914
 04  9  8 21 35 14.9990000  0  5G 3G 8G13G23G27
  -1481221.44046  -1829809.31842  22563002.9484   22563001.7844
      1373.4844
  -8210817.28049  -6383146.22446  21661104.9094   21661102.6554
      3531.2504
  -1990931.43149  -1549057.77948  19972576.9334   19972573.9644
       441.8134
   3324010.56148   2574990.83045  22086449.6364   22086445.4374
     -1699.2974
  -5322614.23549  -4135276.70947  20685360.9094   20685358.4484
      2255.4384
 04  9  8 21 35 29.9990000  0  5G 3G 8G13G23G27
  -1501766.44846  -1845818.44643  22559094.4954   22559092.8974
      1365.3444
  -8263776.10849  -6424412.82946  21651026.6364   21651024.6124
      3529.5314
  -1997513.14949  -1554186.40547  19971324.4014   19971321.8744
       435.3444
   3349521.98548   2594869.83745  22091304.1594   22091300.2964
     -1702.6874
  -5356436.11649  -4161631.42447  20678924.8864   20678922.7614
      2253.7664
 04  9  8 21 35 44.9990000  0  5G 3G 8G13G23G27
  -1522184.97946  -1861728.96742  22555207.7844   22555206.8974
      1357.4694
  -8316704.47649  -6465655.71746  21640954.0974   21640953.1514
      3527.8754
  -2003992.40749  -1559235.18448  19970091.1834   19970088.3354
       428.9224
   3375088.42548   2614791.69145  22096169.3314   22096165.8974
     -1705.9374
  -5390228.62449  -4187963.24647  20672494.1754   20672492.2064
      2252.2344
 04  9  8 21 35 59.9990000  0  5G 3G 8G13G23G27
  -1542482.82545  -1877545.49542  22551344.0654   22551343.9764
      1348.7814
  -8369608.35249  -6506879.49346  21630887.2224   21630885.8084
      3525.7814
  -2010374.99149  -1564208.63348  19968877.2304   19968874.2454
       421.9534
   3400703.94248   2634751.79846  22101044.3394   22101040.9444
     -1709.5784
  -5423997.54349  -4214276.68347  20666068.4174   20666066.2694
      2250.1254
 04  9  8 21 36 14.9990000  0  5G 3G 8G13G23G27
  -1562654.64045  -1893263.72942  22547506.2924   22547505.1124
      1340.4064
  -8422482.47549  -6548080.09646  21620825.2614   21620824.1444
      3523.7034
  -2016655.65549  -1569102.66847  19967681.6364   19967678.7304
       415.0164
   3426373.77548   2654754.23646  22105928.6754   22105924.5854
     -1713.5164
  -5457737.40549  -4240567.49247  20659647.7374   20659645.6594
      2248.0164
 04  9  8 21 36 29.9990000  0  5G 3G 8G13G23G27
  -1582698.81946  -1908882.54743  22543692.1754   22543692.0424
      1331.8284
  -8475325.38449  -6589256.37546  21610770.2304   21610768.7374
      3521.5474
  -2022832.98149  -1573916.18548  19966506.0974   19966503.1634
       408.0634
   3452099.12048   2674799.93346  22110824.5504   22110821.2224
     -1717.1094
  -5491447.03449  -4266834.73747  20653232.9874   20653230.9214
      2245.9534
 04  9  8 21 36 44.9990000  0  5G 3G 8G13G23G27
  -1602614.98546  -1924401.67343  22539901.9724   22539900.9174
      1323.6094
  -8528136.50649  -6630407.89946  21600719.5974   21600719.2924
      3519.7344
  -2028906.53349  -1578648.83148  19965350.4484   19965347.0694
       401.5474
   3477880.22448   2694889.07445  22115730.1674   22115726.1124
     -1720.4844
  -5525125.87949  -4293077.99147  20646823.8084   20646821.6714
      2244.3444
 04  9  8 21 36 59.9990000  0  5G 3G 8G13G23G27
  -1622402.58147  -1939820.59544  22536137.6054   22536136.7414
      1314.9844
  -8580915.53349  -6671534.38646  21590676.3704   21590675.8274
      3517.6254
  -2034875.79049  -1583300.19448  19964214.8234   19964211.7964
       394.5474
   3503717.19248   2715021.73945  22120646.3704   22120642.5034
     -1724.1254
  -5558773.75349  -4319297.10248  20640421.1364   20640418.9404
      2242.3444
 04  9  8 21 37 14.9990000  0  5G 3G 8G13G23G27
  -1642063.84146  -1955141.04343  22532396.0424   22532394.5384
      1306.3754
  -8633664.41749  -6712637.39446  21580638.8004   21580637.9334
      3515.3754
  -2040742.87849  -1587871.96248  19963098.6204   19963095.2454
       387.5314
   3529607.79048   2735196.20146  22125573.7454   22125570.4334
     -1727.9694
  -5592392.65849  -4345493.65947  20634024.0734   20634021.6874
      2240.1254
 04  9  8 21 37 29.9990000  0  5G 3G 8G13G23G27
  -1661595.50847  -1970360.52444  22528678.9174   22528678.2534
      1297.3754
  -8686379.96749  -6753714.43846  21570607.6444   21570606.3554
      3512.8754
  -2046504.68249  -1592361.69348  19962001.4954   19961998.4524
       380.2034
   3555555.02048   2755414.80345  22130511.0734   22130508.0034
     -1732.1094
  -5625979.39649  -4371665.14447  20627632.5584   20627630.4644
      2237.6094
 04  9  8 21 37 44.9990000  0  5G 3G 8G13G23G27
  -1681000.22848  -1985481.10844  22524987.1514   22524985.3584
      1290.0164
  -8739065.22149  -6794767.88146  21560581.8704   21560580.2724
      3511.8914
  -2052163.98149  -1596771.53648  19960924.8154   19960922.1124
       374.5784
   3581555.99148   2775675.28146  22135459.6124   22135455.5304
     -1734.5314
  -5659536.75448  -4397813.71847  20621246.3004   20621244.3154
      2236.9224
 04  9  8 21 37 59.9990000  0  5G 3G 8G13G23G27
  -1700277.11747  -2000502.07444  22521317.8084   22521316.3004
      1280.7664
  -8791718.78649  -6835796.61246  21550562.2304   21550560.8314
      3509.0314
  -2057719.82549  -1601100.77648  19959867.5654   19959864.8044
       366.7664
   3607611.36548   2795978.13146  22140417.7924   22140413.8354
     -1738.9374
  -5693063.75649  -4423938.66447  20614866.1984   20614863.9484
      2234.0164
 04  9  8 21 38 14.9990000  0  5G 3G 8G13G23G27
  -1719421.47247  -2015419.71444  22517674.2454   22517674.9404
      1271.8444
  -8844336.41549  -6876797.36346  21540549.7064   21540548.0194
      3506.6094
  -2063167.63449  -1605345.82948  19958830.8704   19958827.8314
       359.6254
   3633725.61848   2816326.85745  22145386.6444   22145382.9834
     -1742.9374
  -5726555.87049  -4450036.40447  20608493.4094   20608491.0814
      2231.6564
 04  9  8 21 38 29.9990000  0  5G 3G 8G13G23G27
  -1738441.74247  -2030240.69744  22514055.4404   22514054.5774
      1263.6094
  -8896926.37449  -6917776.53846  21530541.4644   21530540.8354
      3504.8594
  -2068515.95249  -1609513.35848  19957813.2694   19957810.0624
       352.9534
   3659890.08748   2836714.72245  22150366.1124   22150362.5154
     -1746.2034
  -5760021.58349  -4476113.58947  20602124.9724   20602123.0894
      2229.9064
 04  9  8 21 38 44.9990000  0  5G 3G 8G13G23G27
  -1757334.06847  -2044961.95843  22510460.8704   22510458.5074
      1255.1254
  -8949484.88549  -6958731.21546  21520540.1204   21520538.6904
      3502.7974
  -2073760.80849  -1613600.27348  19956815.3864   19956812.0814
       346.1414
   3686108.38548   2857144.54845  22155355.0734   22155350.2964
     -1749.7344
  -5793457.04449  -4502167.20047  20595762.5114   20595760.2654
      2227.9384
 04  9  8 21 38 59.9990000  0  5G 3G 8G13G23G27
  -1776099.68646  -2059584.48843  22506889.3554   22506888.4014
      1247.0314
  -9002013.30549  -6999662.44746  21510544.6444   21510542.3154
      3501.0474
  -2078903.60049  -1617607.65248  19955836.0424   19955833.0654
       339.7194
   3712378.96148   2877615.11845  22160354.0424   22160351.3974
     -1752.9064
  -5826863.64749  -4528198.30847  20589404.8704   20589402.8824
      2226.3444
 04  9  8 21 39 14.9990000  0  5G 3G 8G13G23G27
  -1794738.67946  -2074108.33443  22503341.4334   22503341.2104
      1238.2344
  -9054511.22449  -7040569.90846  21500554.1754   21500552.5464
      3498.7034
  -2083944.21149  -1621535.40848  19954877.2064   19954873.8974
       332.5314
   3738701.77048   2898126.33845  22165363.3004   22165358.4054
     -1756.7814
  -5860241.28749  -4554206.85647  20583053.6514   20583051.4954
      2224.0634
 04  9  8 21 39 29.9990000  0  5G 3G 8G13G23G27
  -1813246.75547  -2088530.27243  22499820.6594   22499819.9134
      1229.6414
  -9106974.76349  -7081450.57846  21490570.7454   21490569.3084
      3496.5314
  -2088878.64349  -1625380.43348  19953938.1514   19953935.3314
       325.5634
   3765080.56148   2918681.18845  22170382.5194   22170379.4014
     -1760.3284
  -5893585.98849  -4580189.74148  20576708.8084   20576706.4684
      2222.0474
 04  9  8 21 39 44.9990000  0  5G 3G 8G13G23G27
  -1831631.31546  -2102855.89743  22496320.6594   22496321.6634
      1220.8134
  -9159411.26849  -7122310.18746  21480592.3944   21480590.8744
      3494.3914
  -2093714.31149  -1629148.50748  19953018.5114   19953015.1904
       318.6254
   3791507.82248   2939273.81245  22175411.0734   22175407.8784
     -1763.9534
  -5926905.05349  -4606152.65247  20570368.3704   20570365.7844
      2219.9224
 04  9  8 21 39 59.9990000  0  5G 3G 8G13G23G27
  -1849887.32346  -2117081.37843  22492848.9094   22492846.5974
      1212.9064
  -9211815.73449  -7163144.82246  21470620.7694   21470618.5504
      3492.7194
  -2098446.23449  -1632835.72547  19952117.5504   19952114.8744
       312.1254
   3817988.26648   2959907.91345  22180450.8154   22180447.9954
     -1766.9844
  -5960193.55449  -4632091.74448  20564033.6204   20564031.5544
      2218.3594
 04  9  8 21 40 14.9990000  0  5G 3G 8G13G23G27
  -1868013.12747  -2131205.39843  22489398.6904   22489397.5734
      1204.2504
  -9264186.42049  -7203953.15046  21460654.3474   21460652.9874
      3490.4844
  -2103072.70549  -1636440.76847  19951237.1904   19951234.1554
       305.1254
   3844523.54348   2980584.72945  22185499.9094   22185496.7844
     -1770.6414
  -5993449.77349  -4658005.67347  20557704.9804   20557703.1984
      2216.1564
 04  9  8 21 40 29.9990000  0  5G 3G 8G13G23G27
  -1886010.68347  -2145229.48043  22485974.6364   22485972.7184
      1195.7814
  -9316525.32449  -7244736.70746  21450695.1444   21450693.1014
      3488.3594
  -2107595.70649  -1639965.18848  19950376.4404   19950373.4134
       298.2344
   3871111.48448   3001302.56645  22190560.7764   22190556.4764
     -1774.1564
  -6026675.62149  -4683895.94347  20551382.5894   20551380.5624
      2214.1884
 04  9  8 21 40 44.9980000  0  5G 3G 8G13G23G27
  -1903886.77246  -2159158.86944  22482572.7874   22482571.8544
      1187.6254
  -9368836.75149  -7285498.84846  21440740.2644   21440739.4714
      3486.6884
  -2112022.92649  -1643414.97448  19949534.2094   19949531.0104
       291.7974
   3897742.12347   3022053.67745  22195626.6704   22195623.7254
     -1777.1254
  -6059877.04749  -4709767.18647  20545064.3264   20545062.1434
      2212.7034
 04  9  8 21 40 59.9980000  0  5G 3G 8G13G23G27
  -1921640.68247  -2172993.07444  22479194.1934   22479193.6584
      1179.0314
  -9421124.85349  -7326242.80046  21430790.2644   21430788.3934
      3484.4384
  -2116351.98649  -1646788.28148  19948709.9044   19948707.4164
       284.7974
   3924421.69548   3042842.93745  22200704.3034   22200701.2524
     -1780.7974
  -6093055.38149  -4735620.43848  20538750.7404   20538748.9364
      2210.4534
 04  9  8 21 41 14.9980000  0  5G 3G 8G13G23G27
  -1939264.45647  -2186725.94943  22475840.1074   22475838.9594
      1170.5634
  -9473379.43449  -7366960.65646  21420846.0294   21420844.1624
      3482.4694
  -2120575.79049  -1650079.56847  19947906.3034   19947903.3774
       278.0474
   3951155.05848   3063674.07346  22205791.8654   22205788.3734
     -1784.0164
  -6126201.63749  -4761448.68847  20532443.2254   20532441.2834
      2208.6884
 04  9  8 21 41 29.9980000  0  5G 3G 8G13G23G27
  -1956769.89046  -2200366.50543  22472508.3734   22472508.4204
      1163.4224
  -9525612.05049  -7407661.38846  21410906.8894   21410905.5224
      3481.7664
  -2124706.01649  -1653297.93848  19947120.5224   19947118.0684
       272.5164
   3977930.41748   3084537.95946  22210886.9984   22210883.1584
     -1786.0784
  -6159327.58049  -4787261.10847  20526139.5924   20526137.9944
      2208.0164
 04  9  8 21 41 44.9980000  0  6G 3G 8G13G10G23G27
  -1974151.43547  -2213910.53643  22469201.3734   22469200.4284
      1154.6564
  -9577817.08349  -7448340.62546  21400973.0144   21400971.2444
      3479.4534
  -2128737.36049  -1656439.24847  19946353.1784   19946350.4394
       265.4384
   -165478.44314                  23408759.506
      3325.563
   4004752.94348   3105438.56446  22215991.9674   22215988.3574
     -1789.7034
  -6192427.71349  -4813053.42047  20519841.0374   20519838.9084
      2205.8134
 04  9  8 21 41 59.9980000  0  6G 3G 8G13G10G23G27
  -1991411.16646  -2227359.69143  22465917.3574   22465916.2914
      1146.5634
  -9629996.75949  -7489000.09346  21391043.0294   21391041.5104
      3477.7664
  -2132671.92749  -1659505.14948  19945604.6074   19945601.7294
       259.0474
   -215311.67344   -137369.55951  23399276.9824   23399276.6504
      3318.7504
   4031620.23148   3126374.09845  22221103.1004   22221100.1544
     -1792.6094
  -6225504.34149  -4838827.41147  20513546.5764   20513544.5064
      2204.2664
 04  9  8 21 42 14.9980000  0  6G 3G 8G13G10G23G27
  -2008549.14445  -2240713.96242  22462654.0684   22462654.1314
      1138.6094
  -9682151.16049  -7529639.88246  21381117.8814   21381116.9824
      3476.1724
  -2136509.77349  -1662495.68847  19944874.4514   19944871.5844
       252.7664
   -265045.48744   -176123.03541  23389813.1704   23389812.2294
      3312.4064
   4058532.09248   3147344.34045  22226225.2174   22226221.2954
     -1795.4374
  -6258557.22249  -4864582.91447  20507256.7174   20507254.2254
      2202.9224
 04  9  8 21 42 29.9980000  0  6G 3G 8G13G10G23G27
  -2025566.57246  -2253974.30742  22459419.5844   22459416.0144
      1130.0784
  -9734281.44849  -7570260.88246  21371198.2724   21371196.7914
      3474.0314
  -2140252.18049  -1665411.86048  19944162.1784   19944159.5764
       245.8134
   -314680.86644   -214799.90641  23380366.1004   23380366.5294
      3305.2344
   4085487.14048   3168348.26645  22231354.4824   22231351.1044
     -1798.9374
  -6291587.82749  -4890321.04347  20500971.4824   20500969.0534
      2200.7814
 04  9  8 21 42 44.9980000  0  6G 3G 8G13G10G23G27
  -2042459.43546  -2267137.55542  22456202.9514   22456202.5574
      1121.4694
  -9786383.70749  -7610860.03746  21361283.8814   21361282.4514
      3472.0474
  -2143895.19749  -1668250.58548  19943468.6394   19943466.6664
       239.1094
   -364213.63345   -253396.89841  23370941.5374   23370940.6434
      3298.2034
   4112489.09148   3189388.71645  22236492.8654   22236488.9474
     -1802.0784
  -6324592.14248  -4916038.68547  20494691.2724   20494688.6934
      2198.9064
 04  9  8 21 42 59.9980000  0  6G 3G 8G13G10G23G27
  -2059228.86247  -2280204.61643  22453012.5764   22453010.8974
      1114.3134
  -9838458.75049  -7651437.97046  21351374.1234   21351373.3574
      3471.1564
  -2147439.89449  -1671012.69748  19942794.5374   19942791.2404
       233.4224
   -413644.739 4                  23361534.490
      3292.297
   4139536.68648   3210464.72245  22241640.1784   22241636.3304
     -1804.2034
  -6357571.10648  -4941736.56847  20488414.9824   20488412.7134
      2198.1724
 04  9  8 21 43 14.9980000  0  6G 3G 8G13G10G23G27
  -2075879.81847  -2293179.39143  22449843.1074   22449841.4794
      1105.7194
  -9890511.53549  -7691998.56946  21341468.5064   21341467.1664
      3469.0784
  -2150891.15149  -1673702.00547  19942137.3114   19942134.6824
       226.6414
   -462978.775 3                  23352147.178
      3285.156
   4166624.79248   3231572.28946  22246794.8424   22246791.4714
     -1807.5784
  -6390529.79648  -4967418.67047  20482143.5614   20482141.2014
      2196.2344
 04  9  8 21 43 29.9980000  0  6G 3G 8G13G10G23G27
  -2092404.45847  -2306055.78243  22446698.9904   22446697.4004
      1097.7344
  -9942534.30849  -7732535.80146  21331568.8734   21331567.4984
      3467.4694
  -2154241.33348  -1676312.55148  19941500.3734   19941497.2254
       220.3284
   -512207.79913                  23342780.951
      3278.750
   4193761.04547   3252717.37645  22251958.6704   22251955.8654
     -1810.3914
  -6423460.46948  -4993078.94247  20475877.1934   20475874.3694
      2194.8284
 04  9  8 21 43 44.9980000  0  6G 3G 8G13G10G23G27
  -2108813.23248  -2318841.80043  22443576.8264   22443575.0334
      1089.3914
  -9994537.66949  -7773057.88646  21321673.1544   21321671.2564
      3465.6414
  -2157500.87149  -1678852.45147  19940880.0844   19940876.6894
       213.6564
   -561342.023 3                  23333431.006
      3271.828
   4220934.69648   3273891.63045  22257129.2794   22257125.9284
     -1813.4534
  -6456373.50149  -5018725.46147  20469613.6004   20469611.7214
      2192.9694
 04  9  8 21 43 59.9980000  0  6G 3G 8G13G10G23G27
  -2125101.74747  -2331534.17243  22440475.8894   22440476.0294
      1081.5474
 -10046517.02849  -7813561.28146  21311781.6004   21311780.7214
      3464.0784
  -2160665.47649  -1681318.38547  19940277.7254   19940275.1974
       207.4534
   -610376.89014                  23324097.998
      3265.422
   4248149.99048   3295098.32445  22262308.8574   22262304.9674
     -1816.1414
  -6489264.64249  -5044354.91847  20463354.7324   20463352.6704
      2191.5634
 04  9  8 21 44 14.9980000  0  6G 3G 8G13G10G23G27
  -2141270.63648  -2344133.32843  22437400.1864   22437398.8894
      1074.0634
 -10098473.15749  -7854046.56046  21301894.4434   21301893.4434
      3463.0004
  -2163735.79249  -1683710.86347  19939693.3974   19939690.5764
       201.6254
   -659312.816 3                  23314786.857
      3259.313
   4275406.02748   3316336.75745  22267495.9204   22267491.9754
     -1818.3594
  -6522134.48049  -5069967.77847  20457099.9434   20457097.5924
      2190.6094
 04  9  8 21 44 29.9980000  0  6G 3G 8G13G10G23G27
  -2157316.73848  -2356636.75343  22434345.7014   22434345.3114
      1065.0784
 -10150402.56249  -7894511.03346  21292012.7794   21292011.4164
      3460.4224
  -2166708.51249  -1686027.27247  19939127.9594   19939124.7644
       194.3594
                                  23305496.287
      3251.500
   4302705.88648   3337609.33745  22272690.1784   22272686.5374
     -1821.9374
  -6554979.67749  -5095561.43147  20450849.6544   20450847.3304
      2188.2194
 04  9  8 21 44 44.9980000  0  6G 3G 8G13G10G23G27
  -2173248.79948  -2369051.35944  22431314.6074   22431313.0534
      1058.3594
 -10202314.28949  -7934961.70646  21282134.0764   21282132.6234
      3460.2664
  -2169592.54849  -1688274.57848  19938578.9434   19938576.1354
       189.2974
   -756886.07114                  23296220.865
      3246.125
   4330040.55447   3358909.04144  22277891.1234   22277888.3544
     -1823.4374
  -6587809.16649  -5121142.85247  20444601.7094   20444599.5844
      2188.1414
 04  9  8 21 44 59.9980000  0  7G 3G 8G13G10G23G27G28
  -2189063.43248  -2381374.46843  22428305.0374   22428304.2524
      1050.1724
 -10254204.83649  -7975395.88146  21272259.5684   21272258.9324
      3458.4064
  -2172384.46249  -1690450.10648  19938047.5764   19938044.9864
       182.8594
                                  23286960.943
      3239.219
   4357413.29248   3380238.41044  22283100.7404   22283096.6044
     -1826.4064
  -6620619.54649  -5146709.37247  20438358.4754   20438356.5964
      2186.5164
   -186555.73858   -129724.54752  23742240.7404   23742240.2484
      4734.0004
 04  9  8 21 45 14.9980000  0  7G 3G 8G13G10G23G27G28
  -2204766.80847  -2393610.86443  22425316.6704   22425315.3544
      1043.0314
 -10306080.15049  -8015818.20146  21262388.4124   21262387.3344
      3457.7194
  -2175090.47249  -1692558.69548  19937532.6234   19937530.2014
       177.4844
   -854079.303 4                  23277724.576
      3233.531
   4384817.64947   3401592.36044  22288315.6394   22288311.9944
     -1828.1564
  -6653416.83949  -5172265.71847  20432117.7324   20432115.5294
      2185.9694
   -257569.89448   -185060.15742  23728727.1154   23728727.2524
      4734.0944
 04  9  8 21 45 29.9980000  0  7G 3G 8G13G10G23G27G28
  -2220356.36248  -2405758.53944  22422351.7954   22422349.5574
      1035.3134
 -10357937.51249  -8056226.51547  21252520.1004   21252519.1784
      3456.3914
  -2177708.04049  -1694598.36547  19937035.2954   19937031.8264
       171.3914
   -902535.70753   -672869.43051  23268500.6704   23268500.6314
      3227.2504
   4412256.07047   3422972.89444  22293537.1544   22293533.1664
     -1830.5004
  -6686198.52249  -5197809.87347  20425879.3654   20425877.2834
      2184.7344
   -328579.25947   -240392.07342  23715213.8114   23715213.8654
      4733.6884
 04  9  8 21 45 44.9980000  0  7G 3G 8G13G10G23G27G28
  -2235832.76848  -2417818.07143  22419405.7874   22419403.8424
      1027.8444
 -10409777.90349  -8096621.62046  21242654.9514   21242653.8344
      3455.2504
  -2180237.77549  -1696569.60347  19936553.3734   19936550.7604
       165.5004
   -950898.23544   -710554.56641  23259299.3504   23259297.6974
      3221.0634
   4439727.68347   3444379.33344  22298764.7324   22298761.2054
     -1832.6874
  -6718965.25349  -5223342.39547  20419644.3504   20419641.5684
      2183.7664
   -399584.38347   -295720.65242  23701701.4364   23701701.2444
      4733.4064
 04  9  8 21 45 59.9980000  0  7G 3G 8G13G10G23G27G28
  -2251191.74148  -2429786.12243  22416483.3114   22416481.2834
      1020.4384
 -10461596.70149  -8136999.89346  21232794.4674   21232793.5334
      3454.2814
  -2182675.51649  -1698469.15347  19936089.6784   19936086.7054
       159.9064
   -999162.45244   -748163.03541  23250114.9124   23250112.8304
      3214.7504
   4467236.52147   3465814.78444  22303999.9284   22303997.1624
     -1834.8124
  -6751712.72449  -5248859.89647  20413412.5144   20413410.1394
      2182.9844
   -470580.65048   -351042.35943  23688192.9904   23688191.6974
      4733.2194
 04  9  8 21 46 14.9980000  0  7G 3G 8G13G10G23G27G28
  -2266437.82348  -2441666.13144  22413581.2324   22413580.5374
      1011.8754
 -10513398.51349  -8177364.92446  21222937.0844   21222935.3574
      3452.1724
  -2185025.92049  -1700300.65548  19935642.3344   19935639.2564
       152.9694
  -1047332.73043   -785698.28941  23240946.1004   23240946.3614
      3207.3754
   4494777.91246   3487275.55844  22309240.8504   22309236.7754
     -1837.9844
  -6784445.56949  -5274366.01547  20407183.7254   20407181.3814
      2180.9224
   -541572.51747   -406360.60842  23674682.6934   23674682.8974
      4731.8284
 04  9  8 21 46 29.9980000  0  7G 3G 8G13G10G23G27G28
  -2281564.70148  -2453453.31944  22410703.2094   22410702.1194
      1005.1094
 -10565177.21249  -8217711.95246  21213083.8264   21213082.5964
      3451.7194
  -2187282.66949  -1702059.17447  19935212.6864   19935209.8544
       147.9064
  -1095402.71745   -823155.37041  23231801.6784   23231798.9124
      3202.0314
   4522357.86946   3508766.38443  22314488.2954   22314485.1004
     -1839.4844
  -6817157.49748  -5299855.82847  20400958.8894   20400956.6314
      2180.6724
   -612553.51547   -461670.44542  23661174.5374   23661175.3654
      4732.2504
 04  9  8 21 46 44.9980000  0  7G 3G 8G13G10G23G27G28
  -2296579.32048  -2465153.01143  22407845.0764   22407844.7134
       997.0784
 -10616939.61449  -8258046.27846  21203233.7874   21203232.2684
      3450.0634
  -2189452.59649  -1703750.03248  19934799.6004   19934797.2324
       141.6254
  -1143378.88344   -860539.33942  23222670.5764   23222669.9084
      3194.8914
   4549969.34647   3530281.78143  22319742.9824   22319739.1044
     -1842.0624
  -6849855.30049  -5325334.62948  20394736.8504   20394734.3224
      2179.1884
   -683530.39247   -516977.06442  23647668.1314   23647669.0574
      4731.5474
 04  9  8 21 46 59.9980000  0  7G 3G 8G13G10G23G27G28
  -2311475.68548  -2476760.58544  22405011.3974   22405009.8184
       988.7664
 -10668679.83749  -8298363.33346  21193387.8344   21193386.6194
      3448.2974
  -2191529.91049  -1705368.72447  19934404.3344   19934401.6234
       135.0784
  -1191255.27644   -897845.69142  23213559.4674   23213559.3734
      3188.1884
   4577618.09547   3551826.25044  22325005.1394   22325001.4984
     -1844.8284
  -6882533.23449  -5350797.95347  20388517.8344   20388515.5374
      2177.5784
   -754497.09747   -572275.69642  23634162.8574   23634164.9864
      4730.4844
 04  9  8 21 47 14.9980000  0  7G 3G 8G13G10G23G27G28
  -2326252.12747  -2488274.71443  22402199.6004   22402198.0964
       981.7344
 -10720395.83849  -8338661.51146  21183546.6934   21183546.3034
      3447.5784
  -2193512.73849  -1706913.78748  19934027.3344   19934024.7404
       129.7194
  -1239029.79444   -935072.54942  23204468.6004   23204468.1824
      3182.1564
   4605305.62747   3573400.93045  22330273.6314   22330270.1544
     -1846.5624
  -6915189.39348  -5376244.30547  20382304.3424   20382301.5334
      2176.9224
   -825451.67547   -627564.93842  23620662.2324   23620661.8734
      4730.5164
 04  9  8 21 47 29.9980000  0  7G 3G 8G13G10G23G27G28
  -2340909.33247  -2499695.89543  22399408.6704   22399408.7404
       973.1094
 -10772088.29449  -8378941.33246  21173709.7644   21173708.7324
      3445.2194
  -2195401.83349  -1708385.82348  19933667.6394   19933665.3654
       122.6884
  -1286702.83545   -972220.39042  23195399.4364   23195396.5064
      3174.6884
   4633031.11346   3595005.17944  22335549.2254   22335545.7364
     -1849.7664
  -6947824.47349  -5401674.22747  20376093.7324   20376091.2014
      2174.8754
   -896394.40547   -682844.88242  23607161.1234   23607161.5024
      4729.0314
 04  9  8 21 47 44.9980000  0  7G 3G 8G13G10G23G27G28
  -2355445.02648  -2511022.38743  22396645.3424   22396642.1474
       965.0314
 -10823754.88749  -8419201.00646  21163878.0534   21163877.2404
      3443.5634
  -2197194.95949  -1709783.08047  19933326.4824   19933323.3814
       116.3754
  -1334271.93345  -1009287.19042  23186344.9204   23186344.6934
      3167.7974
   4660796.53647   3616640.61144  22340832.7874   22340829.3034
     -1852.3914
  -6980436.13149  -5427085.91547  20369887.9824   20369885.8854
      2173.4064
   -967322.81447   -738113.69942  23593664.0064   23593664.3074
      4728.1254
 04  9  8 21 47 59.9980000  0  7G 3G 8G13G10G23G27G28
  -2369858.43746  -2522253.59742  22393899.4124   22393900.0184
       957.3284
 -10875394.90749  -8459439.97047  21154051.3344   21154050.0184
      3442.3134
  -2198891.32449  -1711104.93648  19933003.8034   19933001.2604
       110.3914
  -1381736.10344  -1046272.29441  23177312.3424   23177311.7014
      3161.2664
   4688602.79746   3638307.75644  22346123.8184   22346120.3464
     -1854.5624
  -7013023.58949  -5452478.73047  20363686.3974   20363684.5144
      2172.2034
  -1038235.99047   -793370.67242  23580169.8974   23580170.4944
      4727.5944
 04  9  8 21 48 14.9980000  0  7G 3G 8G13G10G23G27G28
  -2384147.55547  -2533387.93243  22391182.1544   22391180.0334
       948.6254
 -10927006.26749  -8499656.60246  21144230.2254   21144228.7324
      3439.9384
  -2200489.00249  -1712349.89148  19932699.9364   19932696.8734
       103.3594
  -1429093.20645  -1083173.89142  23168301.9824   23168299.8224
      3153.9384
   4716451.31947   3660007.84944  22351424.1234   22351421.1274
     -1857.8444
  -7045584.88549  -5477851.17247  20357490.5144   20357488.2794
      2170.0314
  -1109131.82147   -848614.15642  23566679.1314   23566678.9474
      4725.9384
 04  9  8 21 48 29.9980000  0  7G 3G 8G13G10G23G27G28
  -2398308.40347  -2544422.35743  22388486.9124   22388486.0104
       939.6254
 -10978584.83349  -8539847.69147  21134415.5064   21134413.6894
      3437.2504
  -2201984.13149  -1713514.94647  19932415.0454   19932412.8464
        96.0944
  -1476339.04745  -1119988.88542  23159310.8264   23159309.8894
      3145.8594
   4744345.96547   3681743.88044  22356731.2724   22356728.8854
     -1861.3124
  -7078116.08449  -5503200.16547  20351300.3344   20351297.7564
      2167.5474
  -1180006.13048   -903840.82242  23553192.1864   23553191.8184
      4724.0634
 04  9  8 21 48 44.9980000  0  7G 3G 8G13G10G23G27G28
  -2412342.31347  -2555357.85943  22385816.1234   22385814.7404
       931.4384
 -11030132.27249  -8580014.50247  21124605.6624   21124604.4474
      3435.4844
  -2203378.07249  -1714601.14748  19932150.3574   19932147.2914
        89.5634
  -1523474.66545  -1156717.91842  23150340.8264   23150340.1274
      3138.7344
   4772285.37447   3703514.79244  22362049.5614   22362044.6934
     -1864.0314
  -7110618.34449  -5528526.59147  20345115.0614   20345112.6974
      2165.9384
  -1250859.95047   -959051.52942  23539708.5764   23539709.9004
      4722.9384
 04  9  8 21 48 59.9980000  0  7G 3G 8G13G10G23G27G28
  -2426247.85648  -2566193.37743  22383170.8654   22383169.9364
       923.0164
 -11081646.69249  -8620155.59947  21114802.4824   21114801.4394
      3433.4694
  -2204669.52349  -1715607.47648  19931903.9594   19931901.5294
        82.9224
  -1570498.63245  -1193359.91742  23141392.5064   23141392.1434
      3131.5314
   4800270.59646   3725321.41243  22367374.2014   22367371.1394
     -1866.9064
  -7143090.38349  -5553829.47747  20338935.8814   20338933.6154
      2163.9694
  -1321691.81647  -1014245.16142  23526230.0294   23526230.2014
      4721.6254
 04  9  8 21 49 14.9980000  0  7G 3G 8G13G10G23G27G28
  -2440022.23647  -2576926.60642  22380549.0064   22380548.2794
       914.4064
 -11133125.21149  -8660268.72347  21105007.1784   21105005.5644
      3431.1564
  -2205855.45849  -1716531.58848  19931678.6474   19931676.1474
        75.9694
  -1617407.59845  -1229912.34042  23132466.4824   23132465.8264
      3123.8594
   4828304.40146   3747165.92243  22372709.0844   22372706.2054
     -1870.1564
  -7175529.16349  -5579106.44247  20332763.0294   20332760.6314
      2161.9064
  -1392498.45248  -1069419.12042  23512757.7324   23512755.3264
      4720.0314
 04  9  8 21 49 29.9980000  0  7G 3G 8G13G10G23G27G28
  -2453665.93148  -2587558.08243  22377953.1934   22377950.8034
       905.1254
 -11184568.22649  -8700354.18647  21095218.0294   21095216.0964
      3428.2664
  -2206936.31349  -1717373.83948  19931472.8034   19931469.5574
        68.4844
  -1664201.85345  -1266375.35841  23123561.6934   23123560.4004
      3115.6254
   4856386.12946   3769047.71543  22378052.6784   22378048.6894
     -1873.7664
  -7207935.15149  -5604357.87547  20326596.0764   20326593.6584
      2159.1884
  -1463280.16448  -1124573.64542  23499287.2794   23499285.7054
      4717.8914
 04  9  8 21 49 44.9980000  0  7G 3G 8G13G10G23G27G28
  -2467178.91848  -2598087.67943  22375380.8344   22375380.4824
       897.2664
 -11235975.91749  -8740412.11246  21085434.8654   21085433.2914
      3426.7664
  -2207912.01849  -1718134.13848  19931286.9434   19931284.3734
        62.2194
  -1710881.23345  -1302748.84241  23114677.6784   23114677.8074
      3108.8914
   4884515.70146   3790966.81943  22383405.3894   22383402.2794
     -1876.1724
  -7240308.37949  -5629583.75848  20320435.7564   20320433.7094
      2157.9224
  -1534036.66448  -1179708.51342  23485822.6544   23485821.6474
      4716.9844
 04  9  8 21 49 59.9980000  0  7G 3G 8G13G10G23G27G28
  -2480563.99648  -2608517.59744  22372834.7094   22372833.4394
       887.7974
 -11287350.84549  -8780444.50946  21075658.8264   21075656.8694
      3423.6414
  -2208785.51449  -1718814.78048  19931121.3654   19931118.3464
        54.5944
  -1757448.31244  -1339034.87742  23105817.1074   23105816.2324
      3100.3594
   4912690.01046   3812920.77843  22388767.4824   22388763.3344
     -1879.9844
  -7272651.46049  -5654786.15447  20314281.0684   20314278.6234
      2155.0004
  -1604770.75848  -1234825.98743  23472362.3504   23472361.8654
      4714.5164
 04  9  8 21 50 14.9980000  0  7G 3G 8G13G10G23G27G28
  -2493822.69748  -2618849.12244  22370311.4204   22370309.7524
       879.3914
 -11338694.54349  -8820452.58946  21065888.2484   21065886.3464
      3421.5634
  -2209558.28849  -1719416.95948  19930974.2254   19930971.5104
        47.8594
  -1803904.46944  -1375234.42241  23096975.8654   23096975.3574
      3093.0944
   4940907.38045   3834908.32642  22394135.9434   22394132.7094
     -1882.9694
  -7304966.10849  -5679966.40147  20308132.1234   20308129.6004
      2153.0944
  -1675483.69748  -1289926.90542  23458905.7724   23458905.2874
      4713.1564
 04  9  8 21 50 29.9980000  0  7G 3G 8G13G10G23G27G28
  -2506949.61348  -2629077.83944  22367814.3264   22367812.2294
       871.2504
 -11390001.53949  -8860432.05047  21056125.1624   21056123.0644
      3419.7664
  -2210224.95749  -1719936.44948  19930846.8894   19930844.7014
        41.4064
  -1850243.83043  -1411343.05541  23088157.9514   23088157.7604
      3086.0004
   4969173.05445   3856933.43242  22399514.7954   22399511.9554
     -1885.5164
  -7337246.75749  -5705120.15147  20301988.7794   20301986.6784
      2151.5164
  -1746169.79248  -1345006.91442  23445454.9904   23445454.0724
      4712.0164
 04  9  8 21 50 44.9980000  0  7G 3G 8G13G10G23G27G28
  -2519945.96248  -2639204.84344  22365340.3344   22365338.9594
       862.8594
 -11441272.95049  -8900383.80047  21046368.2724   21046366.8464
      3417.7034
  -2210786.96349  -1720374.39548  19930740.2174   19930737.3504
        34.8284
  -1896467.83344  -1447361.75041  23079365.8734   23079361.1154
      3078.5474
   4997485.56745   3878995.14343  22404902.4754   22404900.1624
     -1888.2974
  -7369494.60849  -5730248.35748  20295852.5224   20295850.1504
      2149.5474
  -1816830.08148  -1400066.82143  23432008.3344   23432008.3774
      4710.6254
 04  9  8 21 50 59.9980000  0  7G 3G 8G13G10G23G27G28
  -2532811.56448  -2649229.95644  22362892.4674   22362890.7094
       853.2504
 -11492508.58549  -8940307.65546  21036618.0924   21036616.3774
      3414.4064
  -2211243.96349  -1720730.50847  19930653.2644   19930650.4714
        26.8594
                                  23070589.1864   23070587.5644
      3069.8754
   5025845.24047   3901093.53543  22410300.5684   22410297.0964
     -1892.3754
  -7401709.49349  -5755350.85947  20289721.9904   20289719.6474
      2146.4064
  -1887463.93347  -1455106.13142  23418566.9364   23418567.3504
      4707.9534
 04  9  8 21 51 14.9980000  0  7G 3G 8G13G10G23G27G28
  -2545544.33348  -2659151.61144  22360469.5144   22360467.1154
       844.2034
 -11543706.12449  -8980201.82847  21026875.7954   21026874.7914
      3411.7194
  -2211593.94749  -1721003.24148  19930586.5614   19930583.4124
        19.5784
                                  23061834.7094   23061835.9634
      3062.1724
   5054253.67945   3923229.94243  22415705.8974   22415702.5184
     -1895.7504
  -7433889.13549  -5780425.90447  20283598.5224   20283596.1824
      2143.9384
  -1958069.30448  -1510123.26443  23405131.1864   23405131.7644
      4705.9224
 04  9  8 21 51 29.9980000  0  7G 3G 8G13G10G23G27G28
  -2558145.80747  -2668970.96144  22358069.7174   22358070.2524
       835.7034
 -11594867.06449  -9020067.48746  21017140.0224   21017138.7644
      3409.5164
  -2211838.38149  -1721193.71147  19930540.2014   19930537.4284
        12.7664
  -2034437.96144  -1554870.90641  23053106.0224   23053106.0764
      3054.0474
   5082709.24545   3945403.04742  22421120.5844   22421118.1314
     -1898.6414
  -7466035.14349  -5805474.74047  20277481.5844   20277479.2364
      2141.9694
  -2028647.55947  -1565119.26843  23391699.7564   23391701.2214
      4704.3134
 04  9  8 21 51 44.9980000  0  7G 3G 8G13G10G23G27G28
  -2570621.11647  -2678691.95443  22355696.3574   22355696.5614
       827.2034
 -11645996.52149  -9059908.62147  21007411.0294   21007408.9004
      3407.2974
  -2211982.27149  -1721305.85347  19930512.6934   19930509.7254
         5.9534
  -2080198.34445  -1590528.33241  23044398.9824   23044398.6074
      3046.4844
   5111206.76846   3967608.88242  22426543.9284   22426541.1154
     -1901.6094
  -7498152.38149  -5830501.16448  20271369.9434   20271367.5684
      2139.9064
  -2099203.31348  -1620097.71043  23378273.4984   23378274.6004
      4702.6564
 04  9  8 21 51 59.9980000  0  8G 3G 8G13G10G23G27G19G28
  -2582966.75148  -2688311.89044  22353347.6154   22353346.2684
       819.1414
 -11697090.83649  -9099722.37247  20997688.2724   20997686.1044
      3405.5784
  -2212022.29549  -1721337.05548  19930504.9674   19930502.4434
        -0.3914
  -2125842.83044  -1626095.44541  23035714.6004   23035712.0844
      3039.5944
   5139749.53046   3989849.94842  22431975.3264   22431971.2094
     -1903.8444
  -7530237.44049  -5855502.51247  20265264.4514   20265261.6004
      2138.3594
                                  22335397.4044   22335394.3654
      3153.9694
  -2169732.95048  -1675055.82443  23364853.9434   23364852.5064
      4701.4844
 04  9  8 21 52 14.9980000  0  8G 3G 8G13G10G23G27G19G28
  -2595179.16248  -2697828.05544  22351023.7094   22351023.2134
       810.0634
 -11748146.65249  -9139506.11247  20987972.0764   20987970.7604
      3402.7344
  -2211955.09549  -1721284.70147  19930517.9514   19930515.1274
        -7.7814
  -2171367.78345  -1661569.38442  23027051.1154   23027049.7254
      3031.3444
   5168340.76246   4012128.73042  22437416.6234   22437412.7604
     -1907.5474
  -7562286.83349  -5880476.06547  20259165.2644   20259163.2794
      2135.7814
   -192706.58144   -243774.18441  22326406.2404   22326401.2834
      3147.4064
  -2240232.87848  -1729990.77943  23351437.6784   23351436.3224
      4699.3284
 04  9  8 21 52 29.9980000  0  8G 3G 8G13G10G23G27G19G28
  -2607257.79848  -2707239.97244  22348725.2954   22348723.7994
       800.5314
 -11799163.32249  -9179259.34947  20978263.9904   20978262.2564
      3399.6094
  -2211779.92549  -1721148.21847  19930551.2724   19930547.9594
       -15.4844
  -2216772.35244  -1696949.55842  23018411.0764   23018409.7054
      3022.7814
   5196980.78445   4034445.60842  22442864.4364   22442863.6624
     -1911.0784
  -7594299.89449  -5905421.29647  20253073.8344   20253071.1044
      2132.7814
   -239865.07044   -280520.97741  22317433.5374   22317428.6864
      3140.6564
  -2310702.14648  -1784901.84143  23338027.8424   23338027.2054
      4696.6884
 04  9  8 21 52 44.9980000  0  8G 3G 8G13G10G23G27G19G28
  -2619200.74848  -2716546.19944  22346452.3424   22346451.2994
       791.8284
 -11850138.71349  -9218980.41547  20968563.4124   20968562.3114
      3397.1564
  -2211494.94449  -1720926.16147  19930606.0064   19930602.5924
       -22.5474
  -2262054.49145  -1732234.32842  23009793.9674   23009793.6624
      3014.8594
   5225671.61847   4056802.00442  22448326.2954   22448322.6744
     -1914.2344
  -7626274.64849  -5930336.69747  20246989.0844   20246986.4324
      2130.4844
                                  22308485.4754   22308472.6074
      3134.7034
  -2381138.65848  -1839787.38743  23324623.4674   23324623.0334
      4694.8594
 04  9  8 21 52 59.9980000  0  7G 3G 8G13G10G23G27G28
  -2631007.59548  -2725746.33244  22344205.7014   22344204.8344
       782.9064
 -11901072.25649  -9258668.88447  20958871.5294   20958870.1744
      3394.4384
  -2211099.81949  -1720618.29248  19930680.7644   19930677.8114
       -29.6564
  -2307213.46844  -1767423.21542  23001201.2874   23001199.1354
      3006.8284
   5254413.20247   4079197.98942  22453795.5294   22453792.0184
     -1917.5474
  -7658210.71349  -5955221.93948  20240911.7644   20240909.4164
      2128.0634
  -2451541.81347  -1894646.88143  23311226.1074   23311225.7014
      4692.7814
 04  9  8 21 53 14.9980000  0  7G 3G 8G13G10G23G27G28
  -2642679.89148  -2734841.63344  22341984.6474   22341983.7324
       773.4534
 -11951965.48049  -9298325.93947  20949186.3574   20949185.0454
      3391.2974
  -2210595.83249  -1720225.59548  19930776.3734   19930773.9674
       -37.4224
  -2352250.58745  -1802517.10242  22992631.6624   22992629.0924
      2998.0944
   5283204.07447   4101632.37642  22459273.2564   22459271.0294
     -1921.3284
  -7690109.53249  -5980078.16247  20234841.8344   20234839.3144
      2125.0944
  -2521912.84948  -1949481.40743  23297835.0224   23297834.4084
      4689.9844
 04  9  8 21 53 29.9980000  0  7G 3G 8G13G10G23G27G28
  -2654215.81547  -2743830.66343  22339788.6864   22339788.2874
       764.8444
 -12002816.37149  -9337950.00047  20939509.5684   20939508.7444
      3388.9844
  -2209981.18149  -1719746.66148  19930893.4514   19930891.0144
       -44.3444
  -2397163.78145  -1837514.30842  22984083.3654   22984082.3734
      2990.4534
   5312045.88147   4124106.46342  22464763.0454   22464758.8774
     -1924.1874
  -7721968.94649  -6004903.67647  20228778.7954   20228776.6394
      2122.9224
  -2592249.64848  -2004289.27143  23284451.2794   23284449.8774
      4688.3134
 04  9  8 21 53 44.9980000  0  7G 3G 8G13G10G23G27G28
  -2665617.52448  -2752715.11644  22337619.9514   22337618.9044
       755.6564
 -12053626.90349  -9377542.61447  20929841.2794   20929839.9594
      3385.9534
  -2209258.24449  -1719183.34748  19931030.9514   19931027.9514
       -51.8124
  -2441954.86845  -1872416.53442  22975559.9754   22975559.6744
      2981.8284
   5340936.38747   4146618.51642  22470259.8734   22470257.2834
     -1927.6724
  -7753791.27649  -6029700.29947  20222723.3424   20222720.9864
      2120.2034
  -2662554.19247  -2059071.97043  23271071.8654   23271071.3074
      4685.8284
 04  9  8 21 53 59.9980000  0  8G 3G 8G13G10G23G27G19G28
  -2676879.04748  -2761490.34444  22335476.8894   22335475.9284
       745.7034
 -12104391.26149  -9417099.24647  20920181.0684   20920179.3854
      3382.3754
  -2208420.92249  -1718530.91247  19931190.4204   19931187.7134
       -59.9844
  -2486617.84745  -1907218.77542  22967060.6864   22967060.6314
      2972.6254
   5369881.31146   4169172.95342  22475769.1474   22475766.0294
     -1931.8444
  -7785570.43649  -6054463.28747  20216675.7324   20216673.2874
      2116.7814
    -34114.79713                  22263979.904
      3100.609
  -2732820.35848  -2113824.75343  23257700.7644   23257700.0724
      4682.7504
 04  9  8 21 54 14.9980000  0  8G 3G 8G13G10G23G27G19G28
  -2687997.86048  -2770154.35044  22333360.4674   22333360.2684
       736.5314
 -12155106.75549  -9456617.80047  20910530.7094   20910528.9864
      3379.4224
  -2207466.77849  -1717787.41647  19931372.1544   19931369.5334
       -67.4064
  -2531149.70846  -1941918.90642  22958587.9284   22958585.5454
      2964.4534
   5398883.05245   4191771.65342  22481287.9284   22481284.3464
     -1935.2974
  -7817303.83149  -6079190.59748  20210637.3574   20210634.9794
      2114.0634
    -80574.79713                  22255144.717
      3093.859
  -2803045.31948  -2168545.45543  23244337.3504   23244337.0064
      4680.3754
 04  9  8 21 54 29.9980000  0  8G 3G 8G13G10G23G27G19G28
  -2698974.03648  -2778707.22844  22331272.3114   22331271.3264
       727.0004
 -12205773.16149  -9496098.11246  20900888.4364   20900886.9794
      3376.0784
  -2206395.76749  -1716952.89447  19931575.8974   19931573.0414
       -75.3754
  -2575550.34645  -1976516.82342  22950137.8734   22950136.7324
      2955.6564
   5427941.35744   4214414.45941  22486816.5144   22486813.4754
     -1938.8914
  -7848991.37849  -6103882.19248  20204607.2484   20204604.6074
      2110.9384
                                  22246320.693
      3086.672
  -2873228.76347  -2223233.78843  23230981.1934   23230982.1394
      4677.4694
 04  9  8 21 54 44.9980000  0  7G 3G 8G13G10G23G27G28
  -2709811.01748  -2787151.58444  22329210.2324   22329209.1154
       717.4064
 -12256394.15049  -9535543.03447  20891255.7174   20891254.2294
      3372.8444
  -2205211.47049  -1716030.08547  19931801.2874   19931798.5804
       -83.1564
  -2619823.08745  -2011015.02842  22941712.8654   22941711.6114
      2946.8284
   5457052.76343   4237098.62941  22492359.0224   22492353.8544
     -1943.1254
  -7880636.73949  -6128540.92847  20198585.6784   20198582.8384
      2107.9224
  -2943374.08147  -2277892.41443  23217633.6234   23217632.9514
      4674.6564
 04  9  8 21 54 59.9980000  0  6G 3G 8G13G10G27G28
  -2720509.97548  -2795488.46844  22327173.4514   22327172.8384
       708.5474
 -12306970.73549  -9574953.33447  20881631.3034   20881629.8544
      3370.1094
  -2203914.93949  -1715019.80348  19932047.8504   19932045.4944
       -90.4064
  -2663968.83745  -2045414.31542  22933311.6004   22933310.3694
      2938.7344
  -7912240.71949  -6153167.38248  20192571.3504   20192568.9714
      2105.4064
  -3013482.06647  -2332521.97643  23204291.4514   23204291.6434
      4672.4224
 04  9  8 21 55 14.9980000  0  6G 3G 8G13G10G27G28
  -2731064.17648  -2803712.48644  22325166.0294   22325164.8504
       698.6254
 -12357495.88649  -9614323.58147  20872016.3654   20872015.1234
      3366.4384
  -2202499.54249  -1713916.91747  19932317.3654   19932314.3774
       -98.4844
  -2707980.70246  -2079709.28442  22924936.8574   22924935.2834
      2929.5004
  -7943796.64149  -6177756.42147  20186566.0294   20186564.1274
      2101.9384
  -3083545.82247  -2387117.06543  23190959.2254   23190959.5254
      4669.2814
 04  9  8 21 55 29.9980000  0  7G 3G 8G13G10G23G27G28
  -2741472.49648  -2811822.89744  22323184.9594   22323183.8574
       688.5474
 -12407968.45649  -9653652.84047  20862412.5844   20862410.5884
      3362.5474
  -2200964.09149  -1712720.48048  19932609.7174   19932607.1044
      -106.8594
  -2751857.36046  -2113898.88742  22916588.4204   22916585.9554
      2920.0784
     32396.11114                  22509040.264
     -1954.609
  -7975303.26449  -6202307.03147  20180570.9754   20180568.6704
      2098.3594
  -3153563.95047  -2441676.55843  23177636.0454   23177635.3694
      4665.7974
 04  9  8 21 55 44.9980000  0  8G 3G 8G13G10G23G27G19G28
  -2751736.56447  -2819820.83443  22321231.7324   22321230.3894
       679.4534
 -12458389.94149  -9692942.31447  20852817.2564   20852815.7874
      3359.7194
  -2199310.28949  -1711431.81847  19932924.4904   19932922.0494
      -114.1724
  -2795600.08146  -2147984.11642  22908263.1004   22908262.6074
      2911.7814
     61733.85144   4289993.03951  22514621.4364   22514620.1864
     -1957.6094
  -8006762.14649  -6226820.45147  20174584.2564   20174582.3614
      2095.6414
    -23196.15515                  22202516.662
      3050.516
  -3223537.89348  -2496201.63443  23164319.2564   23164319.6544
      4663.3914
 04  9  8 21 55 59.9980000  0  8G 3G 8G13G10G23G27G19G28
  -2761852.91848  -2827703.69844  22319306.4674   22319305.9004
       669.5634
 -12508756.99649  -9732189.35247  20843232.7794   20843231.2684
      3356.0314
  -2197534.67349  -1710048.23247  19933261.9514   19933259.3114
      -122.4694
  -2839205.22746  -2181962.13142  22899966.6314   22899964.8144
      2902.4384
     91132.37344   4312900.91841  22520216.0294   22520213.6154
     -1961.9844
  -8038169.83649  -6251293.97547  20168607.8034   20168605.4124
      2092.2194
    -68898.01845   -477018.45852  22193820.9984   22193817.6584
      3042.9224
  -3293463.94048  -2550689.42843  23151013.4904   23151012.7794
      4660.1094
 04  9  8 21 56 14.9980000  0  8G 3G 8G13G10G23G27G19G28
  -2771823.47748  -2835472.98843  22317409.7094   22317408.3344
       660.2344
 -12559071.40149  -9771395.36947  20833658.4204   20833656.5844
      3352.8444
  -2195639.12549  -1708571.18547  19933622.9824   19933620.7014
      -130.0314
  -2882674.50846  -2215834.29642  22891694.1704   22891692.5724
      2893.7664
    120589.43444   4335854.46141  22525821.2404   22525819.2524
     -1965.4224
  -8069528.12149  -6275728.99348  20162640.3424   20162638.1234
      2089.2344
   -114487.72944   -512542.73041  22185143.7324   22185142.3034
      3035.9694
  -3363343.79848  -2605141.18643  23137715.5614   23137715.3184
      4657.4384
 04  9  8 21 56 29.9980000  0  8G 3G 8G13G10G23G27G19G28
  -2781651.96148  -2843131.55044  22315539.3034   22315538.0804
       649.9064
 -12609336.56549  -9810563.02947  20824092.9284   20824091.4084
      3348.9064
  -2193627.37949  -1707003.61647  19934005.8504   19934003.1934
      -138.5784
  -2926011.44445  -2249603.37442  22883446.1864   22883445.9004
      2884.1564
    150101.28245   4358850.59441  22531436.8814   22531434.6894
     -1969.8284
  -8100840.58149  -6300128.32447  20156682.3264   20156679.7054
      2085.3914
   -159968.55944   -547982.24241  22176489.0614   22176487.0454
      3027.9064
  -3433180.94848  -2659559.70543  23124425.2174   23124425.8894
      4653.8284
 04  9  8 21 56 44.9980000  0  8G 3G 8G13G10G23G27G19G28
  -2791336.32848  -2850677.83744  22313696.5374   22313695.5964
       640.5474
 -12659550.37149  -9849690.65447  20814538.1544   20814536.2294
      3345.6564
  -2191497.41749  -1705343.92447  19934411.2564   19934408.3424
      -146.2194
  -2969213.67146  -2283267.41042  22875226.2724   22875224.8144
      2875.3754
    179669.86044   4381891.01241  22537064.9044   22537062.0534
     -1973.3444
  -8132105.10749  -6324490.28147  20150732.5684   20150730.7874
      2082.4844
   -205338.15945   -583335.35541  22167857.4364   22167852.8384
      3020.8134
  -3502972.94848  -2713943.07343  23111145.0454   23111144.9554
      4651.0944
 04  9  8 21 56 59.9980000  0  8G 3G 8G13G10G23G27G19G28
  -2800873.78048  -2858109.60544  22311880.5454   22311880.2014
       631.4064
 -12709709.96149  -9888776.03847  20804992.4284   20804990.5924
      3342.6884
  -2189246.42549  -1703589.92247  19934839.4904   19934836.8264
      -153.6724
  -3012278.32046  -2316824.25442  22867030.7404   22867030.0534
      2866.8594
    209297.70444   4404977.59841  22542702.8894   22542699.5184
     -1976.5474
  -8163318.83249  -6348812.66547  20144792.4044   20144790.3464
      2079.7034
   -250593.43846   -618599.19242  22159245.2954   22159241.5844
      3013.6724
  -3572716.90748  -2768288.98243  23097873.2794   23097872.9084
      4648.5164
 04  9  8 21 57 14.9980000  0  8G 3G 8G13G10G23G27G19G28
  -2810266.06948  -2865428.30644  22310093.9824   22310093.3114
       621.0944
 -12759817.07949  -9927820.54447  20795457.7254   20795455.8544
      3338.4384
  -2186876.15849  -1701742.96447  19935290.3034   19935288.0684
      -162.2974
  -3055206.76245  -2350274.95442  22858860.7794   22858860.7484
      2857.0634
    238983.06744   4428109.04741  22548350.8114   22548349.0724
     -1981.3594
  -8194483.53549  -6373096.85047  20138862.3264   20138860.5614
      2075.7194
   -295735.76144   -653774.94541  22150654.4674   22150650.4554
      3005.4064
  -3642414.27948  -2822598.56643  23084610.2324   23084609.5254
      4644.7194
 04  9  8 21 57 29.9980000  0  8G 3G 8G13G10G23G27G19G28
  -2819514.88448  -2872635.19144  22308334.4594   22308332.5574
       612.1884
 -12809873.21449  -9966825.29347  20785932.3974   20785930.8734
      3335.7504
  -2184388.25849  -1699804.35648  19935763.4514   19935761.5224
      -169.4374
  -3098000.50646  -2383620.72642  22850719.5614   22850717.4004
      2848.7504
    268723.91245   4451283.71841  22554010.4124   22554007.6274
     -1984.1724
  -8225600.61649  -6397343.91747  20132940.7644   20132938.8934
      2073.3134
   -340766.49244   -688863.81841  22142084.3344   22142081.2754
      2998.7504
  -3712066.48047  -2876872.93543  23071355.3814   23071354.7874
      4642.3284
 04  9  8 21 57 44.9980000  0  8G 3G 8G13G10G23G27G19G28
  -2828619.08148  -2879729.36344  22306601.9044   22306600.9904
       602.0474
 -12859877.06849 -10005789.34447  20776417.3814   20776415.7914
      3331.7504
  -2181781.52349  -1697773.15648  19936260.0064   19936257.1354
      -177.8444
  -3140658.04846  -2416860.37042  22842601.5614   22842600.4754
      2839.1564
    298521.47844   4474502.50041  22559679.2484   22559678.2094
     -1988.5784
  -8256668.90249  -6421552.98147  20127028.6004   20127026.6784
      2069.5164
   -385684.00346   -723864.49042  22133538.1394   22133533.9794
      2990.6884
  -3781672.12748  -2931111.05543  23058110.6234   23058108.9594
      4638.7974
 04  9  8 21 57 59.9980000  0  8G 3G 8G13G10G23G27G19G28
  -2837575.03248  -2886708.01344  22304897.6004   22304896.6864
       592.2344
 -12909824.87949 -10044709.69047  20766911.6624   20766910.5804
      3328.0944
  -2179052.14749  -1695646.37348  19936779.3264   19936776.7324
      -185.9374
  -3183175.50846  -2449990.82242  22834511.0684   22834508.9944
      2829.8914
    328379.26744   4497768.14241  22565360.9434   22565359.9554
     -1992.4534
  -8287684.59649  -6445721.05047  20121126.6394   20121124.6234
      2066.0784
   -430484.42846   -758773.80042  22125012.6624   22125008.4714
      2982.9064
  -3851227.25448  -2985309.80143  23044874.6624   23044873.8264
      4635.4384
 04  9  8 21 58 14.9980000  0  8G 3G 8G13G10G23G27G19G28
  -2846388.07247  -2893575.31043  22303219.3654   22303218.9044
       583.2504
 -12959721.80849 -10083590.41747  20757416.8344   20757415.0224
      3325.2504
  -2176205.73549  -1693428.40947  19937320.8574   19937318.1474
      -193.2034
  -3225558.07646  -2483016.22542  22826445.5614   22826444.1544
      2821.5474
    358291.71844   4521076.52641  22571054.5684   22571052.4824
     -1995.5164
  -8318653.02949  -6469852.29848  20115233.4514   20115231.5374
      2063.4694
   -475172.46846   -793595.74042  22116508.8734   22116504.9434
      2975.8914
  -3920736.87348  -3039473.10443  23031646.8264   23031647.2834
      4632.9224
 04  9  8 21 58 29.9980000  0  8G 3G 8G13G10G23G27G19G28
  -2855055.32847  -2900328.97543  22301570.3424   22301570.4044
       573.2664
 -13009564.72049 -10122429.03547  20747932.3504   20747930.6154
      3321.4224
  -2173239.30849  -1691116.91847  19937885.6704   19937883.1934
      -201.3754
  -3267802.59546  -2515934.06442  22818406.3814   22818404.5924
      2812.1094
    388261.64945   4544429.57241  22576758.1154   22576755.9284
     -1999.5004
  -8349571.21449  -6493944.38148  20109350.3034   20109348.3894
      2059.8754
   -519745.41546   -828327.92542  22108026.6784   22108023.5024
      2968.0474
  -3990197.91048  -3093598.55243  23018429.3184   23018429.2214
      4629.4534
 04  9  8 21 58 44.9980000  0  8G 3G 8G13G10G23G27G19G28
  -2863580.28648  -2906971.81544  22299949.1624   22299947.4004
       564.0164
 -13059357.47249 -10161228.57147  20738456.8034   20738454.7214
      3318.3754
  -2170156.59249  -1688714.81547  19938472.5534   19938469.7484
      -208.8914
  -3309912.54046  -2548747.01642  22810393.9364   22810391.2834
      2803.3594
    418285.33846   4567824.49041  22582471.7094   22582469.1824
     -2002.8754
  -8380442.49049  -6517999.92748  20103475.5534   20103473.5144
      2057.0784
   -564206.18346   -862972.69542  22099565.8114   22099562.3464
      2960.8284
  -4059613.73848  -3147688.76643  23005219.5764   23005219.2134
      4626.7344
 04  9  8 21 58 59.9980000  0  8G 3G 8G13G10G23G27G19G28
  -2871961.47648  -2913502.63244  22298353.3734   22298353.0334
       554.1564
 -13109098.09549 -10199987.50147  20728991.7564   20728989.6194
      3314.5004
  -2166955.95549  -1686220.82347  19939081.2724   19939078.5024
      -217.0474
  -3351886.11147  -2581453.67743  22802406.2014   22802404.5964
      2793.8914
    448363.98745   4591262.43041  22588194.4044   22588191.9324
     -2006.9064
  -8411265.43049  -6542017.79048  20097609.6004   20097607.3344
      2053.4844
   -608552.85046   -897528.54142  22091127.0294   22091123.1584
      2952.9534
  -4128982.51148  -3201742.31843  22992018.4364   22992018.1974
      4623.2664
 04  9  8 21 59 14.9980000  0  8G 3G 8G13G10G23G27G19G28
  -2880194.43248  -2919917.93744  22296786.6934   22296786.6474
       543.9064
 -13158782.23449 -10238702.40647  20719536.6074   20719534.7874
      3310.3914
  -2163632.98349  -1683631.51747  19939713.5294   19939710.9364
      -225.6564
  -3393718.60446  -2614050.39943  22794445.2564   22794444.5334
      2784.2504
    478502.02643   4614746.72341  22593929.3974   22593928.3654
     -2011.1254
  -8442035.34749  -6565994.36247  20091754.7954   20091752.7054
      2049.5164
   -652780.75146   -931991.80042  22082709.5294   22082706.8114
      2944.5784
  -4198299.56148  -3255755.56743  22978828.2954   22978827.2134
      4619.3914
 04  9  8 21 59 29.9980000  0  8G 3G 8G13G10G23G27G19G28
  -2888285.42248  -2926222.64044  22295248.1314   22295246.4124
       534.4224
 -13208415.91349 -10277377.99247  20710091.8654   20710090.3264
      3306.9384
  -2160193.74249  -1680951.59747  19940367.7794   19940365.6114
      -233.4374
  -3435415.95947  -2646541.85643  22786511.3654   22786510.0184
      2775.0944
    508693.099 4                  22599677.482
     -2014.797
  -8472758.54149  -6589934.50947  20085908.1784   20085905.8894
      2046.3754
   -696895.79547   -966367.12142  22074316.4594   22074312.4794
      2936.9694
  -4267570.89447  -3309733.20343  22965645.6864   22965645.5184
      4616.2974
 04  9  8 21 59 44.9980000  0  8G 3G 8G13G10G23G27G19G28
  -2896231.97847  -2932414.77844  22293734.4284   22293734.1744
       525.2974
 -13257996.48749 -10316012.18547  20700656.9434   20700655.9904
      3304.0004
  -2156635.94949  -1678179.30647  19941044.8574   19941042.3424
      -240.7344
  -3476975.44746  -2678925.89143  22778601.9984   22778600.5924
      2766.5004
    538939.495 4                  22605433.248
     -2017.844
  -8503432.24049  -6613836.09248  20080071.4124   20080068.9794
      2043.6414
   -740895.14644  -1000652.14442  22065944.3034   22065940.1004
      2929.7344
  -4336793.66848  -3363672.97143  22952472.5144   22952472.2444
      4613.5474
 04  9  8 21 59 59.9980000  0  7G 3G 8G13G10G27G19G28
  -2904034.16947  -2938494.37944  22292249.9824   22292249.7644
       515.4534
 -13307523.77449 -10354604.86747  20691232.3734   20691230.7324
      3300.1884
  -2152959.49449  -1675314.54347  19941744.4754   19941742.0374
      -248.8914
  -3518396.85246  -2711202.25843  22770719.0064   22770718.2834
      2756.9384
  -8534056.40849  -6637699.06648  20074243.3574   20074241.1004
      2040.1564
   -784778.61443  -1034847.09441  22057594.3184   22057589.0644
      2921.8444
  -4405967.73548  -3417574.80143  22939310.9514   22939309.1704
      4610.1094
 04  9  8 22  0 14.9970000  0  7G 3G 8G13G10G27G19G28
  -2911696.38848  -2944464.98244  22290792.2674   22290791.0874
       506.5004
 -13356999.34149 -10393157.26047  20681817.6104   20681815.5364
      3297.2034
  -2149169.40549  -1672361.24848  19942465.6814   19942463.1654
      -256.2194
  -3559682.15246  -2743372.63843  22762864.0174   22762861.5794
      2748.2664
  -8564633.86749  -6661525.66947  20068425.0634   20068423.0244
      2037.3914
   -828547.48745  -1068952.70741  22049265.4384   22049259.8254
      2914.7344
  -4475093.07748  -3471438.66443  22926156.2824   22926155.1344
      4607.4844
 04  9  8 22  0 29.9970000  0  7G 3G 8G13G10G27G19G28
  -2919218.41248  -2950326.25644  22289361.3844   22289360.6694
       496.6414
 -13406428.52949 -10431673.50747  20672411.5954   20672409.9584
      3293.5004
  -2145264.10849  -1669318.18047  19943209.4234   19943206.9814
      -264.2974
  -3600835.37847  -2775440.07343  22755032.7594   22755030.7634
      2738.9534
  -8595167.36149  -6685317.99947  20062614.8214   20062612.4424
      2033.9384
   -872206.16245  -1102972.30541  22040957.0484   22040951.2044
      2906.6724
  -4544177.47448  -3525270.64943  22913009.4854   22913009.3604
      4604.0474
 04  9  8 22  0 44.9970000  0  8G 3G 8G13G10G23G27G19G28
  -2926600.53848  -2956078.58144  22287956.6264   22287955.5634
       487.1884
 -13455808.55549 -10470151.43447  20663014.1034   20663012.6924
      3290.1414
  -2141244.86949  -1666186.32348  19943973.9854   19943971.5134
      -271.9534
  -3641854.41146  -2807402.91443  22747226.9854   22747226.5174
      2730.0314
                                  22628566.204
     -2032.266
  -8625655.46749  -6709074.96648  20056812.9234   20056810.9194
      2030.7664
   -915752.34243  -1136904.30141  22032667.8994   22032664.5954
      2899.3134
  -4613216.96148  -3579067.59543  22899872.2204   22899871.5404
      4600.9694
 04  9  8 22  0 59.9970000  0  6G 3G 8G13G10G27G28
  -2933843.93948  -2961722.76944  22286577.3844   22286576.7594
       478.0784
 -13505140.69549 -10508592.05347  20653627.0244   20653625.4934
      3287.0634
  -2137112.67249  -1662966.44047  19944760.3064   19944757.0094
      -279.3754
  -3682740.13246  -2839261.91343  22739446.0954   22739445.3804
      2721.2034
  -8656099.34349  -6732797.46347  20051020.0874   20051017.4854
      2027.9224
  -4682212.28948  -3632830.14443  22886742.2984   22886742.2674
      4598.0164
 04  9  8 22  1 14.9970000  0  6G 3G 8G13G10G27G28
  -2940942.41948  -2967254.09044  22285227.5954   22285226.4744
       468.4534
 -13554418.59449 -10546990.39747  20644249.9464   20644248.2394
      3283.4224
  -2132861.27449  -1659653.67147  19945569.2044   19945567.2434
      -287.3284
  -3723486.25046  -2871012.10542  22731692.7674   22731690.8064
      2711.7664
  -8686492.74949  -6756480.62847  20045235.9314   20045233.6424
      2024.5634
  -4751157.04648  -3686553.30843  22873623.5484   22873622.7824
      4594.6724
 04  9  8 22  1 29.9970000  0  7G 3G 8G13G10G27G19G28
  -2947900.33648  -2972675.82944  22283902.9854   22283901.7284
       459.5164
 -13603646.22149 -10585349.58047  20634882.6734   20634880.5484
      3280.5164
  -2128494.88149  -1656251.30147  19946399.9934   19946397.8684
      -294.5314
  -3764096.63047  -2902656.55743  22723964.9934   22723963.1034
      2703.2664
  -8716839.69749  -6780127.59647  20039460.8454   20039459.1344
      2022.0004
                                  22007945.290
      2876.531
  -4820055.28248  -3740240.21843  22860511.3764   22860511.3684
      4592.0004
 04  9  8 22  1 44.9970000  0  7G 3G 8G13G10G27G19G28
  -2954720.81948  -2977990.49644  22282606.2744   22282605.1264
       449.5474
 -13652826.59949 -10623671.95247  20625523.5484   20625521.3604
      3276.5634
  -2124016.69849  -1652761.82547  19947252.3064   19947249.7044
      -302.8124
  -3804574.17046  -2934197.51843  22716262.1184   22716261.2284
      2693.4224
  -8747143.25349  -6803740.76547  20033694.4544   20033692.1424
      2018.1884
    -51801.360 6                  21999741.024
      2868.328
  -4888909.85048  -3793893.07443  22847408.7124   22847407.8254
      4588.2194
